Time,TemperatureF,DewpointF,PressureIn,WindDirection,WindDirectionDegrees,WindSpeedMPH,WindSpeedGustMPH,Humidity,HourlyPrecipIn,Conditions,Clouds,dailyrainin,SoftwareType,DateUTC
2013-06-07 00:00:00,59.2,52.0,30.11,NNW,347,0.0,1.0,77,0.00,,---,0.00,VWS V14.01,2013-06-07 04:00:00,
2013-06-07 00:12:00,58.5,52.0,30.12,ENE,57,1.0,3.0,79,0.00,,---,0.00,VWS V14.01,2013-06-07 04:12:00,
2013-06-07 00:17:00,58.5,52.4,30.12,East,88,2.0,4.0,80,0.00,,---,0.00,VWS V14.01,2013-06-07 04:17:00,
2013-06-07 00:19:00,58.5,53.0,30.12,East,82,4.0,5.0,82,0.00,,---,0.00,VWS V14.01,2013-06-07 04:19:00,
2013-06-07 00:20:00,58.5,53.0,30.12,East,101,4.0,5.0,82,0.00,,---,0.00,VWS V14.01,2013-06-07 04:20:00,
2013-06-07 00:22:00,58.5,52.7,30.12,East,79,4.0,6.0,81,0.00,,---,0.00,VWS V14.01,2013-06-07 04:22:00,
2013-06-07 00:24:00,58.5,52.4,30.12,East,91,5.0,9.0,80,0.00,,---,0.00,VWS V14.01,2013-06-07 04:24:00,
2013-06-07 00:25:00,58.5,52.4,30.12,East,90,5.0,9.0,80,0.00,,---,0.00,VWS V14.01,2013-06-07 04:25:00,
2013-06-07 00:27:00,58.5,52.0,30.12,East,86,3.0,9.0,79,0.00,,---,0.00,VWS V14.01,2013-06-07 04:27:00,
2013-06-07 00:28:00,58.5,52.4,30.12,East,82,3.0,4.0,80,0.00,,---,0.00,VWS V14.01,2013-06-07 04:28:00,
2013-06-07 00:30:00,58.5,52.4,30.12,East,83,5.0,5.0,80,0.00,,---,0.00,VWS V14.01,2013-06-07 04:30:00,
2013-06-07 00:33:00,58.4,52.6,30.12,East,94,6.0,7.0,81,0.00,,---,0.00,VWS V14.01,2013-06-07 04:33:00,
2013-06-07 00:34:00,58.3,52.2,30.12,East,98,3.0,7.0,80,0.00,,---,0.00,VWS V14.01,2013-06-07 04:34:00,
2013-06-07 00:35:00,58.3,52.2,30.12,ENE,76,2.0,7.0,80,0.00,,---,0.00,VWS V14.01,2013-06-07 04:35:00,
2013-06-07 00:38:00,58.2,52.4,30.12,ENE,60,2.0,7.0,81,0.00,,---,0.00,VWS V14.01,2013-06-07 04:38:00,
2013-06-07 00:40:00,58.1,52.3,30.12,ENE,65,2.0,7.0,81,0.00,,---,0.00,VWS V14.01,2013-06-07 04:40:00,
2013-06-07 00:41:00,58.1,52.3,30.12,East,82,5.0,7.0,81,0.00,,---,0.00,VWS V14.01,2013-06-07 04:41:00,
2013-06-07 00:42:00,58.0,52.2,30.12,East,89,2.0,7.0,81,0.00,,---,0.00,VWS V14.01,2013-06-07 04:42:00,
2013-06-07 00:43:00,58.0,52.5,30.12,East,94,5.0,7.0,82,0.00,,---,0.00,VWS V14.01,2013-06-07 04:43:00,
2013-06-07 00:45:00,58.0,52.2,30.12,East,86,3.0,7.0,81,0.00,,---,0.00,VWS V14.01,2013-06-07 04:45:00,
2013-06-07 00:46:00,57.9,52.1,30.12,ESE,106,5.0,7.0,81,0.00,,---,0.00,VWS V14.01,2013-06-07 04:46:00,
2013-06-07 00:48:00,57.8,52.3,30.12,ESE,115,5.0,7.0,82,0.00,,---,0.00,VWS V14.01,2013-06-07 04:48:00,
2013-06-07 00:50:00,57.8,52.7,30.12,East,91,4.0,7.0,83,0.00,,---,0.00,VWS V14.01,2013-06-07 04:50:00,
2013-06-07 00:52:00,57.7,52.2,30.12,East,93,4.0,7.0,82,0.00,,---,0.00,VWS V14.01,2013-06-07 04:52:00,
2013-06-07 00:54:00,57.7,52.6,30.12,East,93,0.0,7.0,83,0.00,,---,0.00,VWS V14.01,2013-06-07 04:54:00,
2013-06-07 00:55:00,57.7,52.9,30.12,East,81,3.0,7.0,84,0.00,,---,0.00,VWS V14.01,2013-06-07 04:55:00,
2013-06-07 00:57:00,57.6,52.5,30.12,ESE,105,3.0,7.0,83,0.00,,---,0.00,VWS V14.01,2013-06-07 04:57:00,
2013-06-07 00:59:00,57.6,52.5,30.12,ESE,103,2.0,3.0,83,0.00,,---,0.00,VWS V14.01,2013-06-07 04:59:00,
2013-06-07 01:00:00,57.5,52.4,30.11,ESE,106,3.0,4.0,83,0.00,,---,0.00,VWS V14.01,2013-06-07 05:00:00,
2013-06-07 01:01:00,57.5,52.4,30.11,East,101,2.0,4.0,83,0.00,,---,0.00,VWS V14.01,2013-06-07 05:01:00,
2013-06-07 01:02:00,57.5,52.7,30.11,NE,56,1.0,4.0,84,0.00,,---,0.00,VWS V14.01,2013-06-07 05:02:00,
2013-06-07 01:04:00,57.5,52.7,30.11,NE,55,1.0,4.0,84,0.00,,---,0.00,VWS V14.01,2013-06-07 05:04:00,
2013-06-07 01:05:00,57.4,52.6,30.11,NE,55,0.0,4.0,84,0.00,,---,0.00,VWS V14.01,2013-06-07 05:05:00,
2013-06-07 01:06:00,57.4,52.6,30.11,ENE,63,2.0,4.0,84,0.00,,---,0.00,VWS V14.01,2013-06-07 05:06:00,
2013-06-07 01:08:00,57.3,52.5,30.11,ENE,70,3.0,5.0,84,0.00,,---,0.00,VWS V14.01,2013-06-07 05:08:00,
2013-06-07 01:09:00,57.3,52.5,30.11,East,91,4.0,7.0,84,0.00,,---,0.00,VWS V14.01,2013-06-07 05:09:00,
2013-06-07 01:11:00,57.3,53.2,30.11,ENE,76,4.0,7.0,86,0.00,,---,0.00,VWS V14.01,2013-06-07 05:11:00,
2013-06-07 01:12:00,57.3,53.2,30.11,East,91,3.0,7.0,86,0.00,,---,0.00,VWS V14.01,2013-06-07 05:12:00,
2013-06-07 01:13:00,57.3,52.8,30.11,East,92,3.0,7.0,85,0.00,,---,0.00,VWS V14.01,2013-06-07 05:13:00,
2013-06-07 01:14:00,57.2,52.7,30.11,SE,142,2.0,7.0,85,0.00,,---,0.00,VWS V14.01,2013-06-07 05:14:00,
2013-06-07 01:17:00,57.2,52.7,30.12,ENE,75,2.0,7.0,85,0.00,,---,0.00,VWS V14.01,2013-06-07 05:17:00,
2013-06-07 01:18:00,57.2,53.1,30.12,ENE,72,3.0,7.0,86,0.01,,---,0.01,VWS V14.01,2013-06-07 05:18:00,
2013-06-07 01:19:00,57.1,52.6,30.12,East,101,4.0,7.0,85,0.01,,---,0.01,VWS V14.01,2013-06-07 05:19:00,
2013-06-07 01:20:00,57.1,52.6,30.11,SE,124,3.0,7.0,85,0.01,,---,0.01,VWS V14.01,2013-06-07 05:20:00,
2013-06-07 01:23:00,57.1,52.6,30.11,East,89,5.0,7.0,85,0.01,,---,0.01,VWS V14.01,2013-06-07 05:23:00,
2013-06-07 01:24:00,57.1,52.6,30.11,ESE,103,6.0,7.0,85,0.01,,---,0.01,VWS V14.01,2013-06-07 05:24:00,
2013-06-07 01:25:00,57.1,53.0,30.11,SE,124,3.0,7.0,86,0.01,,---,0.01,VWS V14.01,2013-06-07 05:25:00,
2013-06-07 01:26:00,57.0,52.5,30.11,ESE,103,4.0,7.0,85,0.01,,---,0.01,VWS V14.01,2013-06-07 05:26:00,
2013-06-07 01:29:00,57.0,52.9,30.11,East,89,3.0,5.0,86,0.01,,---,0.01,VWS V14.01,2013-06-07 05:29:00,
2013-06-07 01:30:00,57.1,53.0,30.11,East,86,2.0,5.0,86,0.01,,---,0.01,VWS V14.01,2013-06-07 05:30:00,
2013-06-07 01:32:00,57.0,53.2,30.11,East,93,4.0,5.0,87,0.01,,---,0.01,VWS V14.01,2013-06-07 05:32:00,
2013-06-07 01:35:00,57.0,53.2,30.11,ESE,111,3.0,5.0,87,0.01,,---,0.01,VWS V14.01,2013-06-07 05:35:00,
2013-06-07 01:36:00,57.0,53.2,30.11,East,91,3.0,5.0,87,0.01,,---,0.01,VWS V14.01,2013-06-07 05:36:00,
2013-06-07 01:38:00,56.9,52.8,30.11,East,93,4.0,5.0,86,0.01,,---,0.01,VWS V14.01,2013-06-07 05:38:00,
2013-06-07 01:39:00,56.9,53.1,30.11,East,89,5.0,6.0,87,0.01,,---,0.01,VWS V14.01,2013-06-07 05:39:00,
2013-06-07 01:40:00,56.9,52.8,30.11,East,96,2.0,6.0,86,0.01,,---,0.01,VWS V14.01,2013-06-07 05:40:00,
2013-06-07 01:41:00,56.9,52.8,30.11,ENE,72,2.0,6.0,86,0.01,,---,0.01,VWS V14.01,2013-06-07 05:41:00,
2013-06-07 01:43:00,56.9,53.4,30.11,ENE,67,2.0,6.0,88,0.01,,---,0.01,VWS V14.01,2013-06-07 05:43:00,
2013-06-07 01:44:00,56.9,53.1,30.11,ENE,66,0.0,6.0,87,0.01,,---,0.01,VWS V14.01,2013-06-07 05:44:00,
2013-06-07 01:46:00,56.8,53.0,30.10,East,100,0.0,6.0,87,0.01,,---,0.01,VWS V14.01,2013-06-07 05:46:00,
2013-06-07 01:47:00,56.8,53.0,30.10,East,100,0.0,6.0,87,0.01,,---,0.01,VWS V14.01,2013-06-07 05:47:00,
2013-06-07 01:49:00,56.7,52.9,30.10,ESE,118,0.0,6.0,87,0.01,,---,0.01,VWS V14.01,2013-06-07 05:49:00,
2013-06-07 01:52:00,56.7,53.2,30.10,ENE,62,0.0,6.0,88,0.01,,---,0.01,VWS V14.01,2013-06-07 05:52:00,
2013-06-07 01:54:00,56.6,53.1,30.10,ENE,62,0.0,6.0,88,0.01,,---,0.01,VWS V14.01,2013-06-07 05:54:00,
2013-06-07 01:55:00,56.6,53.1,30.10,ENE,62,0.0,6.0,88,0.01,,---,0.01,VWS V14.01,2013-06-07 05:55:00,
2013-06-07 01:57:00,56.5,53.0,30.10,ENE,65,0.0,6.0,88,0.01,,---,0.01,VWS V14.01,2013-06-07 05:57:00,
2013-06-07 01:58:00,56.5,53.0,30.10,ENE,65,0.0,6.0,88,0.01,,---,0.01,VWS V14.01,2013-06-07 05:58:00,
2013-06-07 02:00:00,56.5,53.0,30.10,ENE,65,0.0,0.0,88,0.01,,---,0.01,VWS V14.01,2013-06-07 06:00:00,
2013-06-07 02:03:00,56.5,53.0,30.10,ENE,65,0.0,0.0,88,0.01,,---,0.01,VWS V14.01,2013-06-07 06:03:00,
2013-06-07 02:04:00,56.5,53.0,30.10,ENE,67,0.0,0.0,88,0.01,,---,0.01,VWS V14.01,2013-06-07 06:04:00,
2013-06-07 02:05:00,56.4,52.9,30.10,East,80,0.0,0.0,88,0.01,,---,0.01,VWS V14.01,2013-06-07 06:05:00,
2013-06-07 02:08:00,56.3,52.8,30.10,East,88,2.0,2.0,88,0.01,,---,0.01,VWS V14.01,2013-06-07 06:08:00,
2013-06-07 02:09:00,56.3,52.8,30.10,ESE,103,2.0,3.0,88,0.01,,---,0.01,VWS V14.01,2013-06-07 06:09:00,
2013-06-07 02:11:00,56.4,52.9,30.10,East,97,1.0,3.0,88,0.01,,---,0.01,VWS V14.01,2013-06-07 06:11:00,
2013-06-07 02:13:00,56.5,53.0,30.10,East,88,2.0,3.0,88,0.01,,---,0.01,VWS V14.01,2013-06-07 06:13:00,
2013-06-07 02:14:00,56.5,53.0,30.10,East,80,2.0,3.0,88,0.01,,---,0.01,VWS V14.01,2013-06-07 06:14:00,
2013-06-07 02:15:00,56.5,53.0,30.10,East,80,1.0,3.0,88,0.01,,---,0.01,VWS V14.01,2013-06-07 06:15:00,
2013-06-07 02:17:00,56.6,53.1,30.10,ENE,74,0.0,3.0,88,0.01,,---,0.01,VWS V14.01,2013-06-07 06:17:00,
2013-06-07 02:18:00,56.6,53.4,30.09,ENE,74,0.0,3.0,89,0.01,,---,0.01,VWS V14.01,2013-06-07 06:18:00,
2013-06-07 02:19:00,56.6,53.4,30.09,ENE,74,0.0,3.0,89,0.01,,---,0.01,VWS V14.01,2013-06-07 06:19:00,
2013-06-07 02:20:00,56.6,53.4,30.09,ENE,75,0.0,3.0,89,0.01,,---,0.01,VWS V14.01,2013-06-07 06:20:00,
2013-06-07 02:21:00,56.6,53.4,30.10,ENE,63,2.0,3.0,89,0.01,,---,0.01,VWS V14.01,2013-06-07 06:21:00,
2013-06-07 02:22:00,56.6,53.4,30.10,ENE,64,0.0,3.0,89,0.01,,---,0.01,VWS V14.01,2013-06-07 06:22:00,
2013-06-07 02:24:00,56.5,53.3,30.10,ENE,72,2.0,3.0,89,0.01,,---,0.01,VWS V14.01,2013-06-07 06:24:00,
2013-06-07 02:25:00,56.5,53.3,30.10,ENE,68,2.0,3.0,89,0.01,,---,0.01,VWS V14.01,2013-06-07 06:25:00,
2013-06-07 02:26:00,56.5,53.6,30.10,ENE,64,3.0,3.0,90,0.01,,---,0.01,VWS V14.01,2013-06-07 06:26:00,
2013-06-07 02:27:00,56.5,53.6,30.10,ENE,62,2.0,3.0,90,0.01,,---,0.01,VWS V14.01,2013-06-07 06:27:00,
2013-06-07 02:29:00,56.4,53.5,30.10,ENE,70,1.0,2.0,90,0.00,,---,0.01,VWS V14.01,2013-06-07 06:29:00,
2013-06-07 02:30:00,56.4,53.5,30.10,ENE,68,1.0,2.0,90,0.00,,---,0.01,VWS V14.01,2013-06-07 06:30:00,
2013-06-07 02:31:00,56.4,53.5,30.10,East,85,2.0,2.0,90,0.00,,---,0.01,VWS V14.01,2013-06-07 06:31:00,
2013-06-07 02:32:00,56.4,53.5,30.10,ENE,74,2.0,2.0,90,0.00,,---,0.01,VWS V14.01,2013-06-07 06:32:00,
2013-06-07 02:33:00,56.4,53.5,30.10,East,89,4.0,5.0,90,0.00,,---,0.01,VWS V14.01,2013-06-07 06:33:00,
2013-06-07 02:35:00,56.4,53.2,30.10,East,98,3.0,5.0,89,0.00,,---,0.01,VWS V14.01,2013-06-07 06:35:00,
2013-06-07 02:36:00,56.4,53.2,30.10,ENE,58,4.0,5.0,89,0.00,,---,0.01,VWS V14.01,2013-06-07 06:36:00,
2013-06-07 02:37:00,56.5,53.3,30.10,ESE,103,5.0,6.0,89,0.00,,---,0.01,VWS V14.01,2013-06-07 06:37:00,
2013-06-07 02:39:00,56.5,53.3,30.10,East,91,3.0,6.0,89,0.00,,---,0.01,VWS V14.01,2013-06-07 06:39:00,
2013-06-07 02:41:00,56.5,53.3,30.10,East,96,4.0,6.0,89,0.00,,---,0.01,VWS V14.01,2013-06-07 06:41:00,
2013-06-07 02:42:00,56.5,53.3,30.10,East,91,3.0,7.0,89,0.00,,---,0.01,VWS V14.01,2013-06-07 06:42:00,
2013-06-07 02:43:00,56.5,53.0,30.10,East,99,3.0,7.0,88,0.00,,---,0.01,VWS V14.01,2013-06-07 06:43:00,
2013-06-07 02:44:00,56.5,53.0,30.10,East,89,6.0,7.0,88,0.00,,---,0.01,VWS V14.01,2013-06-07 06:44:00,
2013-06-07 02:47:00,56.4,52.9,30.10,East,93,5.0,7.0,88,0.00,,---,0.01,VWS V14.01,2013-06-07 06:47:00,
2013-06-07 02:48:00,56.4,52.9,30.10,East,94,4.0,7.0,88,0.00,,---,0.01,VWS V14.01,2013-06-07 06:48:00,
2013-06-07 02:49:00,56.4,52.9,30.09,East,94,5.0,7.0,88,0.00,,---,0.01,VWS V14.01,2013-06-07 06:49:00,
2013-06-07 02:53:00,56.3,53.1,30.09,ENE,60,3.0,7.0,89,0.00,,---,0.01,VWS V14.01,2013-06-07 06:53:00,
2013-06-07 02:54:00,56.3,52.8,30.09,ENE,65,3.0,7.0,88,0.00,,---,0.01,VWS V14.01,2013-06-07 06:54:00,
2013-06-07 02:55:00,56.3,52.8,30.09,ENE,61,3.0,7.0,88,0.00,,---,0.01,VWS V14.01,2013-06-07 06:55:00,
2013-06-07 02:58:00,56.2,52.7,30.09,ENE,65,3.0,7.0,88,0.00,,---,0.01,VWS V14.01,2013-06-07 06:58:00,
2013-06-07 02:59:00,56.2,53.0,30.09,ENE,57,3.0,3.0,89,0.00,,---,0.01,VWS V14.01,2013-06-07 06:59:00,
2013-06-07 03:00:00,56.2,53.0,30.09,East,86,5.0,6.0,89,0.00,,---,0.01,VWS V14.01,2013-06-07 07:00:00,
2013-06-07 03:03:00,56.2,52.7,30.09,East,92,3.0,8.0,88,0.00,,---,0.01,VWS V14.01,2013-06-07 07:03:00,
2013-06-07 03:04:00,56.2,53.0,30.08,ENE,69,1.0,8.0,89,0.00,,---,0.01,VWS V14.01,2013-06-07 07:04:00,
2013-06-07 03:06:00,56.2,52.7,30.09,East,79,2.0,8.0,88,0.00,,---,0.01,VWS V14.01,2013-06-07 07:06:00,
2013-06-07 03:07:00,56.2,52.7,30.09,ENE,71,1.0,8.0,88,0.00,,---,0.01,VWS V14.01,2013-06-07 07:07:00,
2013-06-07 03:09:00,56.1,52.6,30.09,ENE,70,1.0,8.0,88,0.00,,---,0.01,VWS V14.01,2013-06-07 07:09:00,
2013-06-07 03:10:00,56.1,52.6,30.09,ENE,70,0.0,8.0,88,0.00,,---,0.01,VWS V14.01,2013-06-07 07:10:00,
2013-06-07 03:12:00,56.0,52.5,30.08,ENE,69,0.0,8.0,88,0.00,,---,0.01,VWS V14.01,2013-06-07 07:12:00,
2013-06-07 03:15:00,56.0,52.5,30.08,NE,46,0.0,8.0,88,0.00,,---,0.01,VWS V14.01,2013-06-07 07:15:00,
2013-06-07 03:18:00,55.9,52.7,30.08,North,6,0.0,8.0,89,0.00,,---,0.01,VWS V14.01,2013-06-07 07:18:00,
2013-06-07 03:19:00,55.9,52.7,30.08,North,6,0.0,8.0,89,0.00,,---,0.01,VWS V14.01,2013-06-07 07:19:00,
2013-06-07 03:20:00,55.9,52.7,30.08,North,5,1.0,8.0,89,0.00,,---,0.01,VWS V14.01,2013-06-07 07:20:00,
2013-06-07 03:22:00,55.9,52.7,30.08,North,357,0.0,8.0,89,0.00,,---,0.01,VWS V14.01,2013-06-07 07:22:00,
2013-06-07 03:24:00,55.8,52.9,30.08,NW,319,2.0,8.0,90,0.00,,---,0.01,VWS V14.01,2013-06-07 07:24:00,
2013-06-07 03:25:00,55.8,52.9,30.08,NE,47,0.0,8.0,90,0.00,,---,0.01,VWS V14.01,2013-06-07 07:25:00,
2013-06-07 03:26:00,55.8,52.9,30.08,ENE,57,2.0,8.0,90,0.00,,---,0.01,VWS V14.01,2013-06-07 07:26:00,
2013-06-07 03:27:00,55.7,52.8,30.08,NE,53,2.0,8.0,90,0.00,,---,0.01,VWS V14.01,2013-06-07 07:27:00,
2013-06-07 03:30:00,55.7,52.8,30.08,NE,51,3.0,4.0,90,0.00,,---,0.01,VWS V14.01,2013-06-07 07:30:00,
2013-06-07 03:31:00,55.6,52.7,30.08,ENE,62,2.0,4.0,90,0.00,,---,0.01,VWS V14.01,2013-06-07 07:31:00,
2013-06-07 03:32:00,55.6,52.7,30.08,NE,40,3.0,4.0,90,0.00,,---,0.01,VWS V14.01,2013-06-07 07:32:00,
2013-06-07 03:35:00,55.6,52.7,30.08,ENE,59,7.0,7.0,90,0.00,,---,0.01,VWS V14.01,2013-06-07 07:35:00,
2013-06-07 03:36:00,55.5,52.6,30.08,NE,53,2.0,7.0,90,0.00,,---,0.01,VWS V14.01,2013-06-07 07:36:00,
2013-06-07 03:37:00,55.5,52.6,30.08,ENE,60,1.0,7.0,90,0.00,,---,0.01,VWS V14.01,2013-06-07 07:37:00,
2013-06-07 03:38:00,55.5,52.6,30.08,NE,49,0.0,7.0,90,0.00,,---,0.01,VWS V14.01,2013-06-07 07:38:00,
2013-06-07 03:40:00,55.5,52.6,30.08,NE,46,0.0,7.0,90,0.00,,---,0.01,VWS V14.01,2013-06-07 07:40:00,
2013-06-07 03:41:00,55.5,52.6,30.08,NE,56,3.0,7.0,90,0.00,,---,0.01,VWS V14.01,2013-06-07 07:41:00,
2013-06-07 03:43:00,55.4,52.5,30.08,NE,43,2.0,7.0,90,0.00,,---,0.01,VWS V14.01,2013-06-07 07:43:00,
2013-06-07 03:44:00,55.3,52.4,30.08,NE,56,2.0,7.0,90,0.00,,---,0.01,VWS V14.01,2013-06-07 07:44:00,
2013-06-07 03:46:00,55.3,52.4,30.08,ENE,68,1.0,7.0,90,0.00,,---,0.01,VWS V14.01,2013-06-07 07:46:00,
2013-06-07 03:47:00,55.3,52.4,30.08,ENE,62,1.0,7.0,90,0.00,,---,0.01,VWS V14.01,2013-06-07 07:47:00,
2013-06-07 03:48:00,55.3,52.7,30.08,ENE,65,3.0,7.0,91,0.00,,---,0.01,VWS V14.01,2013-06-07 07:48:00,
2013-06-07 03:49:00,55.4,52.8,30.08,ENE,65,0.0,7.0,91,0.00,,---,0.01,VWS V14.01,2013-06-07 07:49:00,
2013-06-07 03:51:00,55.4,52.8,30.08,ESE,111,0.0,7.0,91,0.00,,---,0.01,VWS V14.01,2013-06-07 07:51:00,
2013-06-07 03:52:00,55.4,52.8,30.08,East,80,0.0,7.0,91,0.00,,---,0.01,VWS V14.01,2013-06-07 07:52:00,
2013-06-07 03:53:00,55.3,52.7,30.08,East,82,0.0,7.0,91,0.00,,---,0.01,VWS V14.01,2013-06-07 07:53:00,
2013-06-07 03:55:00,55.4,52.8,30.08,ENE,60,0.0,7.0,91,0.00,,---,0.01,VWS V14.01,2013-06-07 07:55:00,
2013-06-07 03:56:00,55.4,52.8,30.08,ENE,59,0.0,7.0,91,0.00,,---,0.01,VWS V14.01,2013-06-07 07:56:00,
2013-06-07 03:58:00,55.3,52.7,30.08,NE,45,0.0,7.0,91,0.00,,---,0.01,VWS V14.01,2013-06-07 07:58:00,
2013-06-07 04:00:00,55.3,52.7,30.08,ENE,59,0.0,0.0,91,0.00,,---,0.01,VWS V14.01,2013-06-07 08:00:00,
2013-06-07 04:02:00,55.2,52.6,30.07,NE,43,0.0,0.0,91,0.00,,---,0.01,VWS V14.01,2013-06-07 08:02:00,
2013-06-07 04:04:00,55.2,52.6,30.07,ENE,60,0.0,0.0,91,0.00,,---,0.01,VWS V14.01,2013-06-07 08:04:00,
2013-06-07 04:05:00,55.2,52.6,30.07,ENE,60,0.0,2.0,91,0.00,,---,0.01,VWS V14.01,2013-06-07 08:05:00,
2013-06-07 04:07:00,55.2,52.6,30.07,ENE,57,0.0,2.0,91,0.00,,---,0.01,VWS V14.01,2013-06-07 08:07:00,
2013-06-07 04:08:00,55.2,52.6,30.07,ENE,57,0.0,2.0,91,0.00,,---,0.01,VWS V14.01,2013-06-07 08:08:00,
2013-06-07 04:09:00,55.2,52.6,30.07,NE,39,2.0,4.0,91,0.00,,---,0.01,VWS V14.01,2013-06-07 08:09:00,
2013-06-07 04:12:00,55.2,52.6,30.07,ENE,63,0.0,4.0,91,0.00,,---,0.01,VWS V14.01,2013-06-07 08:12:00,
2013-06-07 04:13:00,55.2,52.6,30.07,ENE,63,0.0,4.0,91,0.00,,---,0.01,VWS V14.01,2013-06-07 08:13:00,
2013-06-07 04:15:00,55.1,52.5,30.07,NE,52,0.0,4.0,91,0.00,,---,0.01,VWS V14.01,2013-06-07 08:15:00,
2013-06-07 04:18:00,55.1,52.5,30.07,ENE,59,0.0,4.0,91,0.00,,---,0.01,VWS V14.01,2013-06-07 08:18:00,
2013-06-07 04:19:00,55.1,52.5,30.07,ENE,61,0.0,4.0,91,0.00,,---,0.01,VWS V14.01,2013-06-07 08:19:00,
2013-06-07 04:20:00,55.1,52.5,30.07,NE,56,3.0,7.0,91,0.00,,---,0.01,VWS V14.01,2013-06-07 08:20:00,
2013-06-07 04:24:00,55.2,52.3,30.07,NE,54,0.0,7.0,90,0.00,,---,0.01,VWS V14.01,2013-06-07 08:24:00,
2013-06-07 04:25:00,55.2,52.6,30.07,NE,46,0.0,7.0,91,0.00,,---,0.01,VWS V14.01,2013-06-07 08:25:00,
2013-06-07 04:29:00,55.1,52.5,30.07,NE,43,0.0,1.0,91,0.00,,---,0.01,VWS V14.01,2013-06-07 08:29:00,
2013-06-07 04:30:00,55.2,52.6,30.07,NNE,27,1.0,2.0,91,0.00,,---,0.01,VWS V14.01,2013-06-07 08:30:00,
2013-06-07 04:31:00,55.2,52.6,30.07,NE,34,0.0,3.0,91,0.00,,---,0.01,VWS V14.01,2013-06-07 08:31:00,
2013-06-07 04:32:00,55.2,52.6,30.07,East,101,0.0,4.0,91,0.00,,---,0.01,VWS V14.01,2013-06-07 08:32:00,
2013-06-07 04:34:00,55.1,52.5,30.07,ENE,63,0.0,4.0,91,0.00,,---,0.01,VWS V14.01,2013-06-07 08:34:00,
2013-06-07 04:36:00,55.1,52.5,30.07,ENE,64,1.0,4.0,91,0.00,,---,0.01,VWS V14.01,2013-06-07 08:36:00,
2013-06-07 04:37:00,55.2,52.6,30.07,NNE,27,0.0,4.0,91,0.00,,---,0.01,VWS V14.01,2013-06-07 08:37:00,
2013-06-07 04:40:00,55.1,52.5,30.07,ENE,60,2.0,4.0,91,0.00,,---,0.01,VWS V14.01,2013-06-07 08:40:00,
2013-06-07 04:41:00,55.1,52.5,30.07,ENE,77,1.0,4.0,91,0.00,,---,0.01,VWS V14.01,2013-06-07 08:41:00,
2013-06-07 04:42:00,55.1,52.5,30.07,NE,51,0.0,4.0,91,0.00,,---,0.01,VWS V14.01,2013-06-07 08:42:00,
2013-06-07 04:43:00,55.1,52.5,30.07,NE,51,0.0,4.0,91,0.00,,---,0.01,VWS V14.01,2013-06-07 08:43:00,
2013-06-07 04:44:00,55.0,52.4,30.07,ENE,65,1.0,4.0,91,0.00,,---,0.01,VWS V14.01,2013-06-07 08:44:00,
2013-06-07 04:45:00,55.0,52.4,30.07,NNE,18,0.0,4.0,91,0.00,,---,0.01,VWS V14.01,2013-06-07 08:45:00,
2013-06-07 04:48:00,55.0,52.4,30.07,ENE,75,2.0,4.0,91,0.00,,---,0.01,VWS V14.01,2013-06-07 08:48:00,
2013-06-07 04:50:00,55.0,52.7,30.07,NE,52,0.0,4.0,92,0.00,,---,0.01,VWS V14.01,2013-06-07 08:50:00,
2013-06-07 04:51:00,55.0,52.7,30.07,NE,46,0.0,4.0,92,0.00,,---,0.01,VWS V14.01,2013-06-07 08:51:00,
2013-06-07 04:52:00,55.0,52.4,30.07,NE,47,1.0,4.0,91,0.00,,---,0.01,VWS V14.01,2013-06-07 08:52:00,
2013-06-07 04:53:00,54.9,52.3,30.07,ENE,68,0.0,4.0,91,0.00,,---,0.01,VWS V14.01,2013-06-07 08:53:00,
2013-06-07 04:55:00,54.9,52.3,30.07,NE,44,0.0,4.0,91,0.00,,---,0.01,VWS V14.01,2013-06-07 08:55:00,
2013-06-07 04:57:00,54.9,52.3,30.07,ENE,77,0.0,4.0,91,0.00,,---,0.01,VWS V14.01,2013-06-07 08:57:00,
2013-06-07 04:58:00,54.9,52.3,30.07,NE,41,0.0,4.0,91,0.00,,---,0.01,VWS V14.01,2013-06-07 08:58:00,
2013-06-07 04:59:00,54.9,52.3,30.07,NNE,20,0.0,1.0,91,0.00,,---,0.01,VWS V14.01,2013-06-07 08:59:00,
2013-06-07 05:00:00,54.9,52.3,30.07,ENE,65,0.0,2.0,91,0.00,,---,0.01,VWS V14.01,2013-06-07 09:00:00,
2013-06-07 05:01:00,54.9,52.3,30.08,ENE,64,0.0,2.0,91,0.00,,---,0.01,VWS V14.01,2013-06-07 09:01:00,
2013-06-07 05:03:00,54.9,52.3,30.07,ENE,58,0.0,2.0,91,0.00,,---,0.01,VWS V14.01,2013-06-07 09:03:00,
2013-06-07 05:05:00,54.8,52.2,30.07,ENE,58,0.0,2.0,91,0.00,,---,0.01,VWS V14.01,2013-06-07 09:05:00,
2013-06-07 05:07:00,54.8,52.2,30.07,NE,45,0.0,2.0,91,0.00,,---,0.01,VWS V14.01,2013-06-07 09:07:00,
2013-06-07 05:09:00,54.8,52.2,30.07,NE,40,0.0,2.0,91,0.00,,---,0.01,VWS V14.01,2013-06-07 09:09:00,
2013-06-07 05:11:00,54.8,52.2,30.07,NE,37,1.0,2.0,91,0.00,,---,0.01,VWS V14.01,2013-06-07 09:11:00,
2013-06-07 05:12:00,54.8,52.2,30.07,ENE,58,1.0,3.0,91,0.00,,---,0.01,VWS V14.01,2013-06-07 09:12:00,
2013-06-07 05:13:00,54.8,52.2,30.07,ENE,58,2.0,3.0,91,0.00,,---,0.01,VWS V14.01,2013-06-07 09:13:00,
2013-06-07 05:16:00,54.8,52.2,30.07,ENE,65,2.0,3.0,91,0.00,,---,0.01,VWS V14.01,2013-06-07 09:16:00,
2013-06-07 05:17:00,54.8,52.2,30.07,NE,43,0.0,3.0,91,0.00,,---,0.01,VWS V14.01,2013-06-07 09:17:00,
2013-06-07 05:18:00,54.7,52.1,30.07,NE,34,1.0,3.0,91,0.00,,---,0.01,VWS V14.01,2013-06-07 09:18:00,
2013-06-07 05:22:00,54.7,51.8,30.07,ENE,62,1.0,4.0,90,0.00,,---,0.01,VWS V14.01,2013-06-07 09:22:00,
2013-06-07 05:23:00,54.7,51.8,30.07,ENE,63,0.0,4.0,90,0.00,,---,0.01,VWS V14.01,2013-06-07 09:23:00,
2013-06-07 05:24:00,54.7,51.8,30.07,NE,37,2.0,4.0,90,0.00,,---,0.01,VWS V14.01,2013-06-07 09:24:00,
2013-06-07 05:27:00,54.7,51.8,30.07,NNE,30,0.0,4.0,90,0.00,,---,0.01,VWS V14.01,2013-06-07 09:27:00,
2013-06-07 05:28:00,54.7,51.8,30.07,NE,53,2.0,4.0,90,0.00,,---,0.01,VWS V14.01,2013-06-07 09:28:00,
2013-06-07 05:29:00,54.7,51.8,30.07,ENE,72,3.0,4.0,90,0.00,,---,0.01,VWS V14.01,2013-06-07 09:29:00,
2013-06-07 05:33:00,54.7,51.5,30.07,ENE,60,3.0,6.0,89,0.00,,---,0.01,VWS V14.01,2013-06-07 09:33:00,
2013-06-07 05:34:00,54.7,51.5,30.07,ENE,62,4.0,6.0,89,0.00,,---,0.01,VWS V14.01,2013-06-07 09:34:00,
2013-06-07 05:35:00,54.7,51.5,30.07,East,91,2.0,6.0,89,0.00,,---,0.01,VWS V14.01,2013-06-07 09:35:00,
2013-06-07 05:38:00,54.9,52.0,30.08,ENE,58,3.0,8.0,90,0.00,,---,0.01,VWS V14.01,2013-06-07 09:38:00,
2013-06-07 05:40:00,54.9,52.0,30.08,East,83,3.0,8.0,90,0.00,,---,0.01,VWS V14.01,2013-06-07 09:40:00,
2013-06-07 05:44:00,54.9,52.0,30.08,NE,46,3.0,8.0,90,0.00,,---,0.01,VWS V14.01,2013-06-07 09:44:00,
2013-06-07 05:45:00,54.9,52.0,30.07,East,82,5.0,8.0,90,0.00,,---,0.01,VWS V14.01,2013-06-07 09:45:00,
2013-06-07 05:46:00,54.8,51.9,30.07,ENE,65,6.0,8.0,90,0.00,,---,0.01,VWS V14.01,2013-06-07 09:46:00,
2013-06-07 05:47:00,54.8,51.6,30.08,NE,49,4.0,8.0,89,0.00,,---,0.01,VWS V14.01,2013-06-07 09:47:00,
2013-06-07 05:49:00,54.8,51.6,30.08,ENE,70,3.0,8.0,89,0.00,,---,0.01,VWS V14.01,2013-06-07 09:49:00,
2013-06-07 05:51:00,54.8,51.9,30.08,East,86,2.0,8.0,90,0.00,,---,0.01,VWS V14.01,2013-06-07 09:51:00,
2013-06-07 05:52:00,54.8,51.9,30.08,ENE,57,0.0,8.0,90,0.00,,---,0.01,VWS V14.01,2013-06-07 09:52:00,
2013-06-07 05:53:00,54.8,51.9,30.08,ENE,69,0.0,8.0,90,0.00,,---,0.01,VWS V14.01,2013-06-07 09:53:00,
2013-06-07 05:54:00,54.8,51.9,30.08,ENE,59,2.0,8.0,90,0.00,,---,0.01,VWS V14.01,2013-06-07 09:54:00,
2013-06-07 05:57:00,54.7,51.5,30.08,ENE,65,2.0,8.0,89,0.00,,---,0.01,VWS V14.01,2013-06-07 09:57:00,
2013-06-07 05:58:00,54.7,51.5,30.08,NE,56,2.0,8.0,89,0.00,,---,0.01,VWS V14.01,2013-06-07 09:58:00,
2013-06-07 05:59:00,54.7,51.5,30.08,NE,40,0.0,2.0,89,0.00,,---,0.01,VWS V14.01,2013-06-07 09:59:00,
2013-06-07 06:03:00,54.7,51.8,30.08,ENE,63,2.0,4.0,90,0.00,,---,0.01,VWS V14.01,2013-06-07 10:03:00,
2013-06-07 06:04:00,54.7,51.8,30.08,NE,51,1.0,4.0,90,0.00,,---,0.01,VWS V14.01,2013-06-07 10:04:00,
2013-06-07 06:05:00,54.7,51.8,30.08,NE,51,0.0,4.0,90,0.00,,---,0.01,VWS V14.01,2013-06-07 10:05:00,
2013-06-07 06:06:00,54.7,51.8,30.08,NE,49,1.0,4.0,90,0.00,,---,0.01,VWS V14.01,2013-06-07 10:06:00,
2013-06-07 06:08:00,54.7,51.8,30.08,East,79,1.0,4.0,90,0.00,,---,0.01,VWS V14.01,2013-06-07 10:08:00,
2013-06-07 06:09:00,54.7,51.8,30.08,ENE,78,0.0,4.0,90,0.00,,---,0.01,VWS V14.01,2013-06-07 10:09:00,
2013-06-07 06:10:00,54.7,51.8,30.08,ENE,78,0.0,4.0,90,0.00,,---,0.01,VWS V14.01,2013-06-07 10:10:00,
2013-06-07 06:11:00,54.7,51.8,30.08,ENE,62,2.0,4.0,90,0.00,,---,0.01,VWS V14.01,2013-06-07 10:11:00,
2013-06-07 06:14:00,54.7,51.8,30.08,NE,46,1.0,4.0,90,0.00,,---,0.01,VWS V14.01,2013-06-07 10:14:00,
2013-06-07 06:15:00,54.7,51.8,30.08,ENE,68,1.0,4.0,90,0.00,,---,0.01,VWS V14.01,2013-06-07 10:15:00,
2013-06-07 06:17:00,54.6,51.7,30.08,NE,46,0.0,4.0,90,0.00,,---,0.01,VWS V14.01,2013-06-07 10:17:00,
2013-06-07 06:18:00,54.6,51.7,30.08,ENE,65,2.0,4.0,90,0.00,,---,0.01,VWS V14.01,2013-06-07 10:18:00,
2013-06-07 06:19:00,54.6,51.4,30.08,ENE,72,1.0,4.0,89,0.00,,---,0.01,VWS V14.01,2013-06-07 10:19:00,
2013-06-07 06:20:00,54.6,51.7,30.08,NE,42,3.0,4.0,90,0.00,,---,0.01,VWS V14.01,2013-06-07 10:20:00,
2013-06-07 06:23:00,54.6,51.7,30.08,NE,56,1.0,4.0,90,0.00,,---,0.01,VWS V14.01,2013-06-07 10:23:00,
2013-06-07 06:25:00,54.6,51.7,30.08,ENE,58,4.0,4.0,90,0.00,,---,0.01,VWS V14.01,2013-06-07 10:25:00,
2013-06-07 06:26:00,54.6,51.7,30.08,ENE,76,1.0,4.0,90,0.00,,---,0.01,VWS V14.01,2013-06-07 10:26:00,
2013-06-07 06:30:00,54.6,51.7,30.08,NE,43,1.0,5.0,90,0.00,,---,0.01,VWS V14.01,2013-06-07 10:30:00,
2013-06-07 06:31:00,54.6,51.7,30.08,NE,42,1.0,5.0,90,0.00,,---,0.01,VWS V14.01,2013-06-07 10:31:00,
2013-06-07 06:36:00,54.6,51.7,30.09,NE,37,1.0,5.0,90,0.00,,---,0.01,VWS V14.01,2013-06-07 10:36:00,
2013-06-07 06:39:00,54.7,51.8,30.09,ENE,77,0.0,5.0,90,0.00,,---,0.01,VWS V14.01,2013-06-07 10:39:00,
2013-06-07 06:41:00,54.7,51.8,30.09,ENE,68,2.0,5.0,90,0.00,,---,0.01,VWS V14.01,2013-06-07 10:41:00,
2013-06-07 06:42:00,54.7,51.8,30.09,ENE,75,1.0,5.0,90,0.00,,---,0.01,VWS V14.01,2013-06-07 10:42:00,
2013-06-07 06:45:00,54.7,51.8,30.09,ENE,75,2.0,5.0,90,0.00,,---,0.01,VWS V14.01,2013-06-07 10:45:00,
2013-06-07 06:47:00,54.8,51.9,30.08,ENE,77,4.0,5.0,90,0.00,,---,0.01,VWS V14.01,2013-06-07 10:47:00,
2013-06-07 06:48:00,54.8,51.9,30.09,ENE,77,2.0,5.0,90,0.00,,---,0.01,VWS V14.01,2013-06-07 10:48:00,
2013-06-07 06:51:00,54.8,51.3,30.09,ENE,72,1.0,6.0,88,0.00,,---,0.01,VWS V14.01,2013-06-07 10:51:00,
2013-06-07 06:52:00,54.9,51.7,30.09,NE,49,2.0,6.0,89,0.00,,---,0.01,VWS V14.01,2013-06-07 10:52:00,
2013-06-07 06:53:00,54.9,51.7,30.09,NE,50,1.0,6.0,89,0.00,,---,0.01,VWS V14.01,2013-06-07 10:53:00,
2013-06-07 06:54:00,54.9,51.4,30.09,ENE,72,2.0,6.0,88,0.00,,---,0.01,VWS V14.01,2013-06-07 10:54:00,
2013-06-07 06:55:00,54.9,51.4,30.09,ENE,58,4.0,6.0,88,0.00,,---,0.01,VWS V14.01,2013-06-07 10:55:00,
2013-06-07 06:57:00,54.9,51.4,30.08,ENE,60,2.0,6.0,88,0.00,,---,0.01,VWS V14.01,2013-06-07 10:57:00,
2013-06-07 06:58:00,54.9,51.4,30.08,ENE,62,3.0,6.0,88,0.00,,---,0.01,VWS V14.01,2013-06-07 10:58:00,
2013-06-07 06:59:00,54.8,51.3,30.08,NE,47,2.0,3.0,88,0.00,,---,0.01,VWS V14.01,2013-06-07 10:59:00,
2013-06-07 07:03:00,54.9,51.4,30.09,East,79,4.0,6.0,88,0.00,,---,0.01,VWS V14.01,2013-06-07 11:03:00,
2013-06-07 07:04:00,54.9,51.4,30.09,East,79,5.0,6.0,88,0.00,,---,0.01,VWS V14.01,2013-06-07 11:04:00,
2013-06-07 07:05:00,55.0,51.5,30.09,ENE,68,2.0,6.0,88,0.00,,---,0.01,VWS V14.01,2013-06-07 11:05:00,
2013-06-07 07:08:00,55.0,50.9,30.09,ENE,68,2.0,7.0,86,0.00,,---,0.01,VWS V14.01,2013-06-07 11:08:00,
2013-06-07 07:09:00,55.1,51.3,30.09,ENE,65,2.0,7.0,87,0.00,,---,0.01,VWS V14.01,2013-06-07 11:09:00,
2013-06-07 07:10:00,55.1,51.3,30.09,ENE,65,3.0,7.0,87,0.00,,---,0.01,VWS V14.01,2013-06-07 11:10:00,
2013-06-07 07:11:00,55.1,51.3,30.09,ENE,63,5.0,7.0,87,0.00,,---,0.01,VWS V14.01,2013-06-07 11:11:00,
2013-06-07 07:13:00,55.2,51.4,30.09,ENE,74,2.0,7.0,87,0.00,,---,0.01,VWS V14.01,2013-06-07 11:13:00,
2013-06-07 07:15:00,55.2,51.1,30.09,NE,51,2.0,7.0,86,0.00,,---,0.01,VWS V14.01,2013-06-07 11:15:00,
2013-06-07 07:16:00,55.2,51.1,30.09,NE,56,3.0,7.0,86,0.00,,---,0.01,VWS V14.01,2013-06-07 11:16:00,
2013-06-07 07:17:00,55.2,50.8,30.09,ENE,70,5.0,7.0,85,0.00,,---,0.01,VWS V14.01,2013-06-07 11:17:00,
2013-06-07 07:19:00,55.2,51.1,30.09,ENE,62,0.0,7.0,86,0.00,,---,0.01,VWS V14.01,2013-06-07 11:19:00,
2013-06-07 07:20:00,55.2,50.8,30.09,NNE,32,2.0,7.0,85,0.00,,---,0.01,VWS V14.01,2013-06-07 11:20:00,
2013-06-07 07:21:00,55.2,50.8,30.09,East,93,2.0,7.0,85,0.00,,---,0.01,VWS V14.01,2013-06-07 11:21:00,
2013-06-07 07:22:00,55.1,50.7,30.09,ENE,60,3.0,7.0,85,0.00,,---,0.01,VWS V14.01,2013-06-07 11:22:00,
2013-06-07 07:23:00,55.1,50.7,30.09,East,85,7.0,7.0,85,0.00,,---,0.01,VWS V14.01,2013-06-07 11:23:00,
2013-06-07 07:24:00,55.1,50.7,30.09,ENE,67,3.0,8.0,85,0.00,,---,0.01,VWS V14.01,2013-06-07 11:24:00,
2013-06-07 07:26:00,55.1,50.7,30.09,NE,46,3.0,8.0,85,0.00,,---,0.01,VWS V14.01,2013-06-07 11:26:00,
2013-06-07 07:27:00,55.0,50.6,30.09,ESE,103,3.0,8.0,85,0.00,,---,0.01,VWS V14.01,2013-06-07 11:27:00,
2013-06-07 07:28:00,55.0,50.9,30.09,ENE,60,4.0,4.0,86,0.00,,---,0.01,VWS V14.01,2013-06-07 11:28:00,
2013-06-07 07:32:00,55.1,51.3,30.09,NE,56,5.0,8.0,87,0.00,,---,0.01,VWS V14.01,2013-06-07 11:32:00,
2013-06-07 07:33:00,55.1,51.0,30.09,ENE,58,2.0,8.0,86,0.00,,---,0.01,VWS V14.01,2013-06-07 11:33:00,
2013-06-07 07:37:00,55.1,51.0,30.09,ENE,60,1.0,8.0,86,0.00,,---,0.01,VWS V14.01,2013-06-07 11:37:00,
2013-06-07 07:38:00,55.1,51.0,30.09,East,81,2.0,8.0,86,0.00,,---,0.01,VWS V14.01,2013-06-07 11:38:00,
2013-06-07 07:39:00,55.1,51.0,30.09,ENE,72,2.0,8.0,86,0.00,,---,0.01,VWS V14.01,2013-06-07 11:39:00,
2013-06-07 07:43:00,55.2,51.1,30.09,ENE,64,1.0,8.0,86,0.00,,---,0.01,VWS V14.01,2013-06-07 11:43:00,
2013-06-07 07:45:00,55.2,50.8,30.10,ENE,62,2.0,8.0,85,0.00,,---,0.01,VWS V14.01,2013-06-07 11:45:00,
2013-06-07 07:48:00,55.2,50.8,30.09,ENE,70,4.0,8.0,85,0.00,,---,0.01,VWS V14.01,2013-06-07 11:48:00,
2013-06-07 07:49:00,55.2,50.5,30.09,ENE,59,4.0,8.0,84,0.00,,---,0.01,VWS V14.01,2013-06-07 11:49:00,
2013-06-07 07:51:00,55.1,50.4,30.09,ENE,58,2.0,8.0,84,0.00,,---,0.01,VWS V14.01,2013-06-07 11:51:00,
2013-06-07 07:53:00,55.1,50.0,30.09,ENE,58,4.0,8.0,83,0.00,,---,0.01,VWS V14.01,2013-06-07 11:53:00,
2013-06-07 07:54:00,55.2,50.1,30.09,ENE,72,2.0,8.0,83,0.00,,---,0.01,VWS V14.01,2013-06-07 11:54:00,
2013-06-07 07:56:00,55.1,50.4,30.09,ENE,70,1.0,8.0,84,0.00,,---,0.01,VWS V14.01,2013-06-07 11:56:00,
2013-06-07 07:58:00,55.2,50.5,30.10,East,87,3.0,3.0,84,0.00,,---,0.01,VWS V14.01,2013-06-07 11:58:00,
2013-06-07 07:59:00,55.2,50.5,30.10,ENE,60,3.0,3.0,84,0.00,,---,0.01,VWS V14.01,2013-06-07 11:59:00,
2013-06-07 08:00:00,55.2,50.5,30.10,ENE,65,1.0,3.0,84,0.00,,---,0.01,VWS V14.01,2013-06-07 12:00:00,
2013-06-07 08:01:00,55.3,50.6,30.10,ENE,60,0.0,3.0,84,0.00,,---,0.01,VWS V14.01,2013-06-07 12:01:00,
2013-06-07 08:04:00,55.3,50.2,30.10,NE,52,3.0,5.0,83,0.00,,---,0.01,VWS V14.01,2013-06-07 12:04:00,
2013-06-07 08:05:00,55.3,50.2,30.10,NE,37,2.0,5.0,83,0.00,,---,0.01,VWS V14.01,2013-06-07 12:05:00,
2013-06-07 08:06:00,55.3,50.2,30.10,ENE,60,2.0,5.0,83,0.00,,---,0.01,VWS V14.01,2013-06-07 12:06:00,
2013-06-07 08:07:00,55.3,50.2,30.10,ENE,57,1.0,5.0,83,0.00,,---,0.01,VWS V14.01,2013-06-07 12:07:00,
2013-06-07 08:10:00,55.4,50.3,30.10,ENE,72,0.0,5.0,83,0.00,,---,0.01,VWS V14.01,2013-06-07 12:10:00,
2013-06-07 08:11:00,55.4,50.3,30.10,ESE,104,4.0,5.0,83,0.00,,---,0.01,VWS V14.01,2013-06-07 12:11:00,
2013-06-07 08:12:00,55.4,50.7,30.10,ENE,71,2.0,5.0,84,0.00,,---,0.01,VWS V14.01,2013-06-07 12:12:00,
2013-06-07 08:13:00,55.4,50.7,30.10,ENE,62,2.0,5.0,84,0.00,,---,0.01,VWS V14.01,2013-06-07 12:13:00,
2013-06-07 08:15:00,55.4,50.7,30.10,East,79,2.0,5.0,84,0.00,,---,0.01,VWS V14.01,2013-06-07 12:15:00,
2013-06-07 08:16:00,55.4,50.7,30.10,ENE,65,2.0,5.0,84,0.00,,---,0.01,VWS V14.01,2013-06-07 12:16:00,
2013-06-07 08:17:00,55.4,50.7,30.10,NNE,22,0.0,5.0,84,0.00,,---,0.01,VWS V14.01,2013-06-07 12:17:00,
2013-06-07 08:18:00,55.4,51.0,30.10,North,349,1.0,5.0,85,0.00,,---,0.01,VWS V14.01,2013-06-07 12:18:00,
2013-06-07 08:21:00,55.6,50.5,30.10,ENE,58,1.0,5.0,83,0.00,,---,0.01,VWS V14.01,2013-06-07 12:21:00,
2013-06-07 08:23:00,55.5,50.4,30.10,ENE,68,1.0,5.0,83,0.00,,---,0.01,VWS V14.01,2013-06-07 12:23:00,
2013-06-07 08:24:00,55.5,50.4,30.10,NE,39,2.0,5.0,83,0.00,,---,0.01,VWS V14.01,2013-06-07 12:24:00,
2013-06-07 08:27:00,55.5,50.4,30.10,ENE,60,0.0,5.0,83,0.00,,---,0.01,VWS V14.01,2013-06-07 12:27:00,
2013-06-07 08:29:00,55.6,50.2,30.11,East,101,1.0,1.0,82,0.00,,---,0.01,VWS V14.01,2013-06-07 12:29:00,
2013-06-07 08:33:00,55.6,49.5,30.10,ENE,58,2.0,5.0,80,0.00,,---,0.01,VWS V14.01,2013-06-07 12:33:00,
2013-06-07 08:34:00,55.5,49.8,30.10,NE,56,1.0,5.0,81,0.00,,---,0.01,VWS V14.01,2013-06-07 12:34:00,
2013-06-07 08:35:00,55.6,49.5,30.10,NE,47,1.0,5.0,80,0.00,,---,0.01,VWS V14.01,2013-06-07 12:35:00,
2013-06-07 08:36:00,55.5,49.8,30.10,ENE,58,0.0,5.0,81,0.00,,---,0.01,VWS V14.01,2013-06-07 12:36:00,
2013-06-07 08:39:00,55.5,49.8,30.10,ENE,76,3.0,5.0,81,0.00,,---,0.01,VWS V14.01,2013-06-07 12:39:00,
2013-06-07 08:40:00,55.5,49.8,30.10,East,82,4.0,5.0,81,0.00,,---,0.01,VWS V14.01,2013-06-07 12:40:00,
2013-06-07 08:41:00,55.5,49.8,30.10,ENE,72,3.0,6.0,81,0.00,,---,0.01,VWS V14.01,2013-06-07 12:41:00,
2013-06-07 08:42:00,55.5,50.1,30.10,NE,53,2.0,6.0,82,0.00,,---,0.01,VWS V14.01,2013-06-07 12:42:00,
2013-06-07 08:44:00,55.5,49.8,30.10,ENE,73,4.0,7.0,81,0.00,,---,0.01,VWS V14.01,2013-06-07 12:44:00,
2013-06-07 08:45:00,55.5,49.8,30.10,East,96,5.0,7.0,81,0.00,,---,0.01,VWS V14.01,2013-06-07 12:45:00,
2013-06-07 08:47:00,55.5,50.4,30.10,East,89,3.0,7.0,83,0.00,,---,0.01,VWS V14.01,2013-06-07 12:47:00,
2013-06-07 08:50:00,55.6,50.8,30.11,NE,36,1.0,7.0,84,0.00,,---,0.01,VWS V14.01,2013-06-07 12:50:00,
2013-06-07 08:52:00,55.5,49.4,30.10,NE,43,2.0,7.0,80,0.00,,---,0.01,VWS V14.01,2013-06-07 12:52:00,
2013-06-07 08:53:00,55.5,49.8,30.10,ENE,59,3.0,7.0,81,0.00,,---,0.01,VWS V14.01,2013-06-07 12:53:00,
2013-06-07 08:55:00,55.4,49.7,30.10,East,101,5.0,7.0,81,0.00,,---,0.01,VWS V14.01,2013-06-07 12:55:00,
2013-06-07 08:58:00,55.4,50.0,30.10,ENE,62,3.0,7.0,82,0.00,,---,0.01,VWS V14.01,2013-06-07 12:58:00,
2013-06-07 08:59:00,55.4,50.0,30.10,ENE,72,3.0,4.0,82,0.00,,---,0.01,VWS V14.01,2013-06-07 12:59:00,
2013-06-07 09:00:00,55.4,50.3,30.11,East,83,2.0,4.0,83,0.00,,---,0.01,VWS V14.01,2013-06-07 13:00:00,
2013-06-07 09:03:00,55.4,50.0,30.11,ENE,70,3.0,5.0,82,0.00,,---,0.01,VWS V14.01,2013-06-07 13:03:00,
2013-06-07 09:05:00,55.4,50.7,30.11,NE,43,1.0,5.0,84,0.00,,---,0.01,VWS V14.01,2013-06-07 13:05:00,
2013-06-07 09:06:00,55.4,50.3,30.10,East,79,2.0,5.0,83,0.00,,---,0.01,VWS V14.01,2013-06-07 13:06:00,
2013-06-07 09:09:00,55.4,50.0,30.10,ENE,57,1.0,5.0,82,0.00,,---,0.01,VWS V14.01,2013-06-07 13:09:00,
2013-06-07 09:10:00,55.4,50.0,30.10,NE,56,0.0,5.0,82,0.00,,---,0.01,VWS V14.01,2013-06-07 13:10:00,
2013-06-07 09:11:00,55.4,50.3,30.10,NE,56,0.0,5.0,83,0.00,,---,0.01,VWS V14.01,2013-06-07 13:11:00,
2013-06-07 09:14:00,55.4,50.0,30.10,ENE,58,1.0,5.0,82,0.00,,---,0.01,VWS V14.01,2013-06-07 13:14:00,
2013-06-07 09:16:00,55.5,50.4,30.10,NE,49,3.0,5.0,83,0.00,,---,0.01,VWS V14.01,2013-06-07 13:16:00,
2013-06-07 09:17:00,55.5,50.1,30.10,ENE,75,3.0,5.0,82,0.00,,---,0.01,VWS V14.01,2013-06-07 13:17:00,
2013-06-07 09:18:00,55.4,49.3,30.10,ENE,57,2.0,5.0,80,0.00,,---,0.01,VWS V14.01,2013-06-07 13:18:00,
2013-06-07 09:21:00,55.5,49.8,30.10,East,87,2.0,5.0,81,0.00,,---,0.01,VWS V14.01,2013-06-07 13:21:00,
2013-06-07 09:22:00,55.5,49.8,30.10,NE,54,0.0,5.0,81,0.00,,---,0.01,VWS V14.01,2013-06-07 13:22:00,
2013-06-07 09:25:00,55.5,50.1,30.10,NE,56,1.0,5.0,82,0.00,,---,0.01,VWS V14.01,2013-06-07 13:25:00,
2013-06-07 09:27:00,55.5,49.1,30.10,ENE,58,2.0,5.0,79,0.00,,---,0.01,VWS V14.01,2013-06-07 13:27:00,
2013-06-07 09:28:00,55.5,48.8,30.10,ENE,63,2.0,5.0,78,0.00,,---,0.01,VWS V14.01,2013-06-07 13:28:00,
2013-06-07 09:32:00,55.6,48.5,30.10,ENE,70,1.0,6.0,77,0.00,,---,0.01,VWS V14.01,2013-06-07 13:32:00,
2013-06-07 09:33:00,55.7,49.0,30.10,NE,47,0.0,6.0,78,0.00,,---,0.01,VWS V14.01,2013-06-07 13:33:00,
2013-06-07 09:35:00,55.7,49.0,30.10,ENE,65,3.0,7.0,78,0.00,,---,0.01,VWS V14.01,2013-06-07 13:35:00,
2013-06-07 09:37:00,55.8,49.0,30.10,NNW,331,1.0,7.0,78,0.00,,---,0.01,VWS V14.01,2013-06-07 13:37:00,
2013-06-07 09:38:00,55.8,49.0,30.09,NE,37,0.0,7.0,78,0.00,,---,0.01,VWS V14.01,2013-06-07 13:38:00,
2013-06-07 09:40:00,55.9,49.5,30.09,ENE,58,2.0,7.0,79,0.00,,---,0.01,VWS V14.01,2013-06-07 13:40:00,
2013-06-07 09:42:00,55.9,49.5,30.09,East,82,0.0,7.0,79,0.00,,---,0.01,VWS V14.01,2013-06-07 13:42:00,
2013-06-07 09:43:00,56.0,49.6,30.09,NE,52,3.0,7.0,79,0.00,,---,0.01,VWS V14.01,2013-06-07 13:43:00,
2013-06-07 09:45:00,56.1,49.0,30.10,ENE,70,4.0,7.0,77,0.00,,---,0.01,VWS V14.01,2013-06-07 13:45:00,
2013-06-07 09:46:00,56.0,48.9,30.09,NE,54,2.0,7.0,77,0.00,,---,0.01,VWS V14.01,2013-06-07 13:46:00,
2013-06-07 09:47:00,56.0,48.9,30.09,NE,49,0.0,7.0,77,0.00,,---,0.01,VWS V14.01,2013-06-07 13:47:00,
2013-06-07 09:49:00,56.1,49.0,30.10,NE,52,2.0,7.0,77,0.00,,---,0.01,VWS V14.01,2013-06-07 13:49:00,
2013-06-07 09:50:00,56.1,48.7,30.10,NE,35,1.0,7.0,76,0.00,,---,0.01,VWS V14.01,2013-06-07 13:50:00,
2013-06-07 09:51:00,56.1,48.7,30.10,ENE,63,1.0,7.0,76,0.00,,---,0.01,VWS V14.01,2013-06-07 13:51:00,
2013-06-07 09:52:00,56.2,48.8,30.10,ENE,70,3.0,7.0,76,0.00,,---,0.01,VWS V14.01,2013-06-07 13:52:00,
2013-06-07 09:54:00,56.2,48.4,30.10,ENE,59,6.0,7.0,75,0.00,,---,0.01,VWS V14.01,2013-06-07 13:54:00,
2013-06-07 09:55:00,56.2,48.0,30.10,ENE,57,1.0,7.0,74,0.00,,---,0.01,VWS V14.01,2013-06-07 13:55:00,
2013-06-07 09:56:00,56.1,48.3,30.10,NE,38,1.0,7.0,75,0.00,,---,0.01,VWS V14.01,2013-06-07 13:56:00,
2013-06-07 09:59:00,56.2,49.1,30.10,ENE,70,4.0,4.0,77,0.00,,---,0.01,VWS V14.01,2013-06-07 13:59:00,
2013-06-07 10:00:00,56.2,49.1,30.10,NE,52,5.0,5.0,77,0.00,,---,0.01,VWS V14.01,2013-06-07 14:00:00,
2013-06-07 10:02:00,56.2,48.8,30.10,East,82,3.0,5.0,76,0.00,,---,0.01,VWS V14.01,2013-06-07 14:02:00,
2013-06-07 10:03:00,56.2,48.4,30.10,ENE,74,3.0,5.0,75,0.00,,---,0.01,VWS V14.01,2013-06-07 14:03:00,
2013-06-07 10:04:00,56.2,48.0,30.10,ENE,67,1.0,5.0,74,0.00,,---,0.01,VWS V14.01,2013-06-07 14:04:00,
2013-06-07 10:05:00,56.2,48.0,30.10,ENE,67,1.0,5.0,74,0.00,,---,0.01,VWS V14.01,2013-06-07 14:05:00,
2013-06-07 10:08:00,56.2,48.4,30.09,East,80,5.0,7.0,75,0.00,,---,0.01,VWS V14.01,2013-06-07 14:08:00,
2013-06-07 10:10:00,56.1,49.0,30.10,NW,311,3.0,7.0,77,0.00,,---,0.01,VWS V14.01,2013-06-07 14:10:00,
2013-06-07 10:11:00,56.1,47.9,30.10,SSW,201,2.0,7.0,74,0.00,,---,0.01,VWS V14.01,2013-06-07 14:11:00,
2013-06-07 10:12:00,56.1,47.9,30.10,NE,51,4.0,7.0,74,0.00,,---,0.01,VWS V14.01,2013-06-07 14:12:00,
2013-06-07 10:13:00,56.0,47.8,30.10,NE,46,3.0,7.0,74,0.00,,---,0.01,VWS V14.01,2013-06-07 14:13:00,
2013-06-07 10:14:00,56.0,47.8,30.10,ENE,60,3.0,7.0,74,0.00,,---,0.01,VWS V14.01,2013-06-07 14:14:00,
2013-06-07 10:16:00,55.8,47.7,30.10,East,79,3.0,7.0,74,0.00,,---,0.01,VWS V14.01,2013-06-07 14:16:00,
2013-06-07 10:17:00,55.7,47.5,30.10,East,86,5.0,7.0,74,0.00,,---,0.01,VWS V14.01,2013-06-07 14:17:00,
2013-06-07 10:19:00,55.7,47.9,30.10,ENE,57,2.0,7.0,75,0.00,,---,0.01,VWS V14.01,2013-06-07 14:19:00,
2013-06-07 10:20:00,55.6,47.5,30.10,ESE,105,5.0,7.0,74,0.00,,---,0.01,VWS V14.01,2013-06-07 14:20:00,
2013-06-07 10:22:00,55.5,46.3,30.10,ENE,71,2.0,7.0,71,0.00,,---,0.01,VWS V14.01,2013-06-07 14:22:00,
2013-06-07 10:24:00,55.4,46.2,30.10,NW,321,2.0,9.0,71,0.00,,---,0.01,VWS V14.01,2013-06-07 14:24:00,
2013-06-07 10:26:00,55.3,46.8,30.10,ENE,60,6.0,9.0,73,0.00,,---,0.01,VWS V14.01,2013-06-07 14:26:00,
2013-06-07 10:27:00,55.3,46.4,30.10,East,99,4.0,9.0,72,0.00,,---,0.01,VWS V14.01,2013-06-07 14:27:00,
2013-06-07 10:29:00,55.2,46.7,30.10,North,356,2.0,5.0,73,0.00,,---,0.01,VWS V14.01,2013-06-07 14:29:00,
2013-06-07 10:32:00,55.2,47.1,30.10,North,1,2.0,5.0,74,0.00,,---,0.01,VWS V14.01,2013-06-07 14:32:00,
2013-06-07 10:35:00,55.2,46.7,30.10,ENE,73,4.0,5.0,73,0.00,,---,0.01,VWS V14.01,2013-06-07 14:35:00,
2013-06-07 10:37:00,55.2,46.3,30.10,NE,38,2.0,8.0,72,0.00,,---,0.01,VWS V14.01,2013-06-07 14:37:00,
2013-06-07 10:39:00,55.2,46.7,30.10,NE,51,4.0,8.0,73,0.00,,---,0.01,VWS V14.01,2013-06-07 14:39:00,
2013-06-07 10:40:00,55.2,46.3,30.10,ENE,58,3.0,8.0,72,0.00,,---,0.01,VWS V14.01,2013-06-07 14:40:00,
2013-06-07 10:43:00,55.2,45.6,30.10,ESE,105,7.0,10.0,70,0.00,,---,0.01,VWS V14.01,2013-06-07 14:43:00,
2013-06-07 10:44:00,55.2,45.2,30.10,ESE,110,3.0,10.0,69,0.00,,---,0.01,VWS V14.01,2013-06-07 14:44:00,
2013-06-07 10:46:00,55.3,46.8,30.10,West,260,2.0,10.0,73,0.00,,---,0.01,VWS V14.01,2013-06-07 14:46:00,
2013-06-07 10:49:00,55.4,47.6,30.10,ENE,60,4.0,10.0,75,0.00,,---,0.01,VWS V14.01,2013-06-07 14:49:00,
2013-06-07 10:52:00,55.3,46.1,30.10,ENE,58,3.0,10.0,71,0.00,,---,0.01,VWS V14.01,2013-06-07 14:52:00,
2013-06-07 10:54:00,55.2,46.3,30.10,NE,52,0.0,10.0,72,0.00,,---,0.01,VWS V14.01,2013-06-07 14:54:00,
2013-06-07 10:55:00,55.2,46.3,30.10,SW,219,1.0,10.0,72,0.00,,---,0.01,VWS V14.01,2013-06-07 14:55:00,
2013-06-07 10:57:00,55.2,46.7,30.10,ENE,77,2.0,10.0,73,0.00,,---,0.01,VWS V14.01,2013-06-07 14:57:00,
2013-06-07 11:00:00,55.3,46.8,30.10,NE,52,3.0,5.0,73,0.00,,---,0.01,VWS V14.01,2013-06-07 15:00:00,
2013-06-07 11:01:00,55.3,46.8,30.10,NE,51,3.0,5.0,73,0.00,,---,0.01,VWS V14.01,2013-06-07 15:01:00,
2013-06-07 11:04:00,55.3,47.2,30.10,NNW,336,2.0,5.0,74,0.00,,---,0.01,VWS V14.01,2013-06-07 15:04:00,
2013-06-07 11:05:00,55.3,47.2,30.10,NE,41,3.0,5.0,74,0.00,,---,0.01,VWS V14.01,2013-06-07 15:05:00,
2013-06-07 11:06:00,55.3,46.8,30.10,ENE,74,4.0,5.0,73,0.00,,---,0.01,VWS V14.01,2013-06-07 15:06:00,
2013-06-07 11:10:00,55.2,47.4,30.10,ENE,58,4.0,6.0,75,0.00,,---,0.01,VWS V14.01,2013-06-07 15:10:00,
2013-06-07 11:11:00,55.2,47.8,30.10,East,85,6.0,6.0,76,0.01,,---,0.02,VWS V14.01,2013-06-07 15:11:00,
2013-06-07 11:15:00,55.2,47.1,30.10,NE,52,4.0,6.0,74,0.01,,---,0.02,VWS V14.01,2013-06-07 15:15:00,
2013-06-07 11:16:00,55.1,47.0,30.10,ENE,78,8.0,8.0,74,0.01,,---,0.02,VWS V14.01,2013-06-07 15:16:00,
2013-06-07 11:17:00,55.1,47.3,30.10,ENE,67,4.0,9.0,75,0.01,,---,0.02,VWS V14.01,2013-06-07 15:17:00,
2013-06-07 11:20:00,55.1,48.0,30.10,ENE,65,5.0,9.0,77,0.01,,---,0.02,VWS V14.01,2013-06-07 15:20:00,
2013-06-07 11:21:00,55.1,48.0,30.10,North,1,2.0,9.0,77,0.01,,---,0.02,VWS V14.01,2013-06-07 15:21:00,
2013-06-07 11:22:00,55.1,48.4,30.10,ENE,75,2.0,9.0,78,0.01,,---,0.02,VWS V14.01,2013-06-07 15:22:00,
2013-06-07 11:23:00,55.1,48.4,30.10,East,83,6.0,9.0,78,0.01,,---,0.02,VWS V14.01,2013-06-07 15:23:00,
2013-06-07 11:26:00,55.0,48.6,30.11,ENE,73,5.0,9.0,79,0.01,,---,0.02,VWS V14.01,2013-06-07 15:26:00,
2013-06-07 11:27:00,55.0,48.3,30.11,East,79,1.0,9.0,78,0.01,,---,0.02,VWS V14.01,2013-06-07 15:27:00,
2013-06-07 11:28:00,55.0,48.3,30.11,NE,46,1.0,9.0,78,0.01,,---,0.02,VWS V14.01,2013-06-07 15:28:00,
2013-06-07 11:31:00,55.0,48.6,30.11,ENE,67,3.0,3.0,79,0.01,,---,0.02,VWS V14.01,2013-06-07 15:31:00,
2013-06-07 11:32:00,55.0,48.6,30.11,NE,47,5.0,5.0,79,0.01,,---,0.02,VWS V14.01,2013-06-07 15:32:00,
2013-06-07 11:33:00,55.0,48.6,30.11,ENE,69,2.0,5.0,79,0.01,,---,0.02,VWS V14.01,2013-06-07 15:33:00,
2013-06-07 11:34:00,55.0,48.6,30.11,ENE,69,0.0,5.0,79,0.01,,---,0.02,VWS V14.01,2013-06-07 15:34:00,
2013-06-07 11:38:00,55.0,48.3,30.11,NE,35,2.0,7.0,78,0.01,,---,0.02,VWS V14.01,2013-06-07 15:38:00,
2013-06-07 11:39:00,54.9,47.8,30.11,ENE,70,6.0,7.0,77,0.01,,---,0.02,VWS V14.01,2013-06-07 15:39:00,
2013-06-07 11:43:00,54.6,48.9,30.11,NE,49,1.0,8.0,81,0.01,,---,0.02,VWS V14.01,2013-06-07 15:43:00,
2013-06-07 11:44:00,54.5,48.8,30.11,NNE,22,3.0,8.0,81,0.01,,---,0.02,VWS V14.01,2013-06-07 15:44:00,
2013-06-07 11:45:00,54.5,48.8,30.11,SSE,164,1.0,8.0,81,0.01,,---,0.02,VWS V14.01,2013-06-07 15:45:00,
2013-06-07 11:49:00,54.2,49.2,30.10,ENE,57,3.0,8.0,83,0.02,,---,0.03,VWS V14.01,2013-06-07 15:49:00,
2013-06-07 11:50:00,54.2,49.2,30.10,ENE,59,4.0,8.0,83,0.02,,---,0.03,VWS V14.01,2013-06-07 15:50:00,
2013-06-07 11:55:00,53.9,49.5,30.11,NE,34,2.0,8.0,85,0.02,,---,0.03,VWS V14.01,2013-06-07 15:55:00,
2013-06-07 11:56:00,53.9,49.5,30.10,NE,41,2.0,8.0,85,0.02,,---,0.03,VWS V14.01,2013-06-07 15:56:00,
2013-06-07 12:00:00,53.7,49.6,30.10,NE,54,0.0,4.0,86,0.03,,---,0.04,VWS V14.01,2013-06-07 16:00:00,
2013-06-07 12:01:00,53.7,49.6,30.11,ENE,75,1.0,4.0,86,0.03,,---,0.04,VWS V14.01,2013-06-07 16:01:00,
2013-06-07 12:02:00,53.7,49.9,30.11,ENE,59,1.0,4.0,87,0.03,,---,0.04,VWS V14.01,2013-06-07 16:02:00,
2013-06-07 12:05:00,53.7,50.2,30.11,East,81,6.0,7.0,88,0.03,,---,0.04,VWS V14.01,2013-06-07 16:05:00,
2013-06-07 12:06:00,53.6,49.8,30.11,ENE,69,3.0,8.0,87,0.04,,---,0.05,VWS V14.01,2013-06-07 16:06:00,
2013-06-07 12:07:00,53.6,50.1,30.11,NE,49,9.0,9.0,88,0.04,,---,0.05,VWS V14.01,2013-06-07 16:07:00,
2013-06-07 12:09:00,53.4,49.3,30.11,NE,50,3.0,9.0,86,0.04,,---,0.05,VWS V14.01,2013-06-07 16:09:00,
2013-06-07 12:12:00,53.0,48.0,30.11,ENE,69,3.0,9.0,83,0.04,,---,0.05,VWS V14.01,2013-06-07 16:12:00,
2013-06-07 12:13:00,52.9,47.6,30.10,ENE,57,6.0,9.0,82,0.04,,---,0.05,VWS V14.01,2013-06-07 16:13:00,
2013-06-07 12:14:00,52.8,47.1,30.10,NNW,328,1.0,9.0,81,0.04,,---,0.05,VWS V14.01,2013-06-07 16:14:00,
2013-06-07 12:17:00,52.8,47.8,30.10,NW,326,2.0,9.0,83,0.04,,---,0.05,VWS V14.01,2013-06-07 16:17:00,
2013-06-07 12:18:00,52.7,47.0,30.10,ENE,65,3.0,9.0,81,0.04,,---,0.05,VWS V14.01,2013-06-07 16:18:00,
2013-06-07 12:19:00,52.7,47.0,30.11,NE,43,3.0,9.0,81,0.04,,---,0.05,VWS V14.01,2013-06-07 16:19:00,
2013-06-07 12:20:00,52.7,47.0,30.10,NE,35,2.0,9.0,81,0.04,,---,0.05,VWS V14.01,2013-06-07 16:20:00,
2013-06-07 12:22:00,52.6,47.3,30.11,NE,37,3.0,9.0,82,0.04,,---,0.05,VWS V14.01,2013-06-07 16:22:00,
2013-06-07 12:24:00,52.5,47.8,30.11,NE,40,1.0,9.0,84,0.04,,---,0.05,VWS V14.01,2013-06-07 16:24:00,
2013-06-07 12:25:00,52.5,47.8,30.11,NW,312,3.0,9.0,84,0.04,,---,0.05,VWS V14.01,2013-06-07 16:25:00,
2013-06-07 12:26:00,52.5,48.4,30.11,NNW,338,1.0,9.0,86,0.04,,---,0.05,VWS V14.01,2013-06-07 16:26:00,
2013-06-07 12:27:00,52.5,48.1,30.11,ENE,68,3.0,9.0,85,0.04,,---,0.05,VWS V14.01,2013-06-07 16:27:00,
2013-06-07 12:29:00,52.5,47.8,30.11,North,10,2.0,2.0,84,0.03,,---,0.05,VWS V14.01,2013-06-07 16:29:00,
2013-06-07 12:32:00,52.6,48.2,30.11,ENE,67,3.0,6.0,85,0.03,,---,0.05,VWS V14.01,2013-06-07 16:32:00,
2013-06-07 12:34:00,52.7,48.6,30.11,NE,35,2.0,6.0,86,0.03,,---,0.05,VWS V14.01,2013-06-07 16:34:00,
2013-06-07 12:37:00,52.7,48.6,30.11,ENE,77,4.0,7.0,86,0.03,,---,0.05,VWS V14.01,2013-06-07 16:37:00,
2013-06-07 12:38:00,52.7,47.7,30.10,ENE,69,6.0,10.0,83,0.03,,---,0.05,VWS V14.01,2013-06-07 16:38:00,
2013-06-07 12:39:00,52.7,47.7,30.10,ESE,110,5.0,10.0,83,0.03,,---,0.05,VWS V14.01,2013-06-07 16:39:00,
2013-06-07 12:42:00,52.7,47.4,30.11,NNW,331,2.0,10.0,82,0.03,,---,0.05,VWS V14.01,2013-06-07 16:42:00,
2013-06-07 12:44:00,52.6,46.6,30.10,ENE,63,7.0,11.0,80,0.03,,---,0.05,VWS V14.01,2013-06-07 16:44:00,
2013-06-07 12:45:00,52.6,46.6,30.10,ENE,62,5.0,11.0,80,0.03,,---,0.05,VWS V14.01,2013-06-07 16:45:00,
2013-06-07 12:47:00,52.5,46.2,30.10,ENE,60,5.0,11.0,79,0.03,,---,0.05,VWS V14.01,2013-06-07 16:47:00,
2013-06-07 12:48:00,52.4,46.4,30.10,East,82,4.0,11.0,80,0.03,,---,0.05,VWS V14.01,2013-06-07 16:48:00,
2013-06-07 12:50:00,52.4,46.4,30.10,NE,52,4.0,11.0,80,0.03,,---,0.05,VWS V14.01,2013-06-07 16:50:00,
2013-06-07 12:51:00,52.4,46.8,30.10,NE,41,1.0,11.0,81,0.03,,---,0.05,VWS V14.01,2013-06-07 16:51:00,
2013-06-07 12:52:00,52.5,47.2,30.10,NE,49,1.0,11.0,82,0.03,,---,0.05,VWS V14.01,2013-06-07 16:52:00,
2013-06-07 12:53:00,52.5,47.2,30.10,ENE,60,3.0,11.0,82,0.03,,---,0.05,VWS V14.01,2013-06-07 16:53:00,
2013-06-07 12:54:00,52.6,47.3,30.10,NE,55,2.0,11.0,82,0.03,,---,0.05,VWS V14.01,2013-06-07 16:54:00,
2013-06-07 12:55:00,52.6,46.9,30.10,NE,47,1.0,11.0,81,0.03,,---,0.05,VWS V14.01,2013-06-07 16:55:00,
2013-06-07 12:56:00,52.7,46.7,30.10,East,84,8.0,11.0,80,0.03,,---,0.05,VWS V14.01,2013-06-07 16:56:00,
2013-06-07 12:57:00,52.6,46.0,30.10,ENE,77,3.0,11.0,78,0.03,,---,0.05,VWS V14.01,2013-06-07 16:57:00,
2013-06-07 12:58:00,52.7,46.0,30.10,NE,40,3.0,11.0,78,0.03,,---,0.05,VWS V14.01,2013-06-07 16:58:00,
2013-06-07 12:59:00,52.7,46.4,30.10,NE,41,3.0,4.0,79,0.02,,---,0.05,VWS V14.01,2013-06-07 16:59:00,
2013-06-07 13:00:00,52.7,46.4,30.10,NE,53,10.0,10.0,79,0.02,,---,0.05,VWS V14.01,2013-06-07 17:00:00,
2013-06-07 13:02:00,52.7,46.0,30.10,ENE,69,5.0,10.0,78,0.02,,---,0.05,VWS V14.01,2013-06-07 17:02:00,
2013-06-07 13:03:00,52.7,46.0,30.10,ENE,64,6.0,10.0,78,0.02,,---,0.05,VWS V14.01,2013-06-07 17:03:00,
2013-06-07 13:05:00,52.9,46.6,30.09,NNE,32,2.0,10.0,79,0.02,,---,0.05,VWS V14.01,2013-06-07 17:05:00,
2013-06-07 13:07:00,53.0,46.3,30.09,NE,45,4.0,10.0,78,0.02,,---,0.05,VWS V14.01,2013-06-07 17:07:00,
2013-06-07 13:08:00,53.0,46.3,30.09,ENE,62,2.0,10.0,78,0.02,,---,0.05,VWS V14.01,2013-06-07 17:08:00,
2013-06-07 13:09:00,53.0,46.3,30.09,NE,52,0.0,10.0,78,0.02,,---,0.05,VWS V14.01,2013-06-07 17:09:00,
2013-06-07 13:10:00,53.0,46.7,30.09,ENE,65,0.0,10.0,79,0.02,,---,0.05,VWS V14.01,2013-06-07 17:10:00,
2013-06-07 13:12:00,53.0,46.7,30.09,East,81,2.0,10.0,79,0.02,,---,0.05,VWS V14.01,2013-06-07 17:12:00,
2013-06-07 13:14:00,52.9,45.9,30.09,NE,48,1.0,10.0,77,0.02,,---,0.05,VWS V14.01,2013-06-07 17:14:00,
2013-06-07 13:15:00,52.9,46.2,30.09,NNE,27,3.0,10.0,78,0.02,,---,0.05,VWS V14.01,2013-06-07 17:15:00,
2013-06-07 13:17:00,52.8,46.5,30.09,NE,41,1.0,10.0,79,0.02,,---,0.05,VWS V14.01,2013-06-07 17:17:00,
2013-06-07 13:18:00,52.7,46.4,30.09,NE,49,4.0,10.0,79,0.02,,---,0.05,VWS V14.01,2013-06-07 17:18:00,
2013-06-07 13:19:00,52.6,46.3,30.09,ENE,60,2.0,10.0,79,0.02,,---,0.05,VWS V14.01,2013-06-07 17:19:00,
2013-06-07 13:20:00,52.7,47.4,30.09,North,10,2.0,10.0,82,0.02,,---,0.05,VWS V14.01,2013-06-07 17:20:00,
2013-06-07 13:22:00,52.6,46.6,30.09,NNW,338,3.0,10.0,80,0.02,,---,0.05,VWS V14.01,2013-06-07 17:22:00,
2013-06-07 13:23:00,52.7,47.0,30.09,NE,46,1.0,10.0,81,0.02,,---,0.05,VWS V14.01,2013-06-07 17:23:00,
2013-06-07 13:25:00,52.6,46.6,30.09,North,10,1.0,10.0,80,0.02,,---,0.05,VWS V14.01,2013-06-07 17:25:00,
2013-06-07 13:27:00,52.5,46.5,30.09,ENE,57,8.0,10.0,80,0.02,,---,0.05,VWS V14.01,2013-06-07 17:27:00,
2013-06-07 13:28:00,52.5,46.5,30.09,East,96,2.0,10.0,80,0.02,,---,0.05,VWS V14.01,2013-06-07 17:28:00,
2013-06-07 13:31:00,52.3,46.0,30.09,NNE,29,1.0,5.0,79,0.00,,---,0.05,VWS V14.01,2013-06-07 17:31:00,
2013-06-07 13:33:00,52.2,46.2,30.09,ENE,58,7.0,8.0,80,0.00,,---,0.05,VWS V14.01,2013-06-07 17:33:00,
2013-06-07 13:34:00,52.1,46.1,30.09,ENE,77,5.0,8.0,80,0.00,,---,0.05,VWS V14.01,2013-06-07 17:34:00,
2013-06-07 13:38:00,52.0,46.7,30.09,East,98,1.0,8.0,82,0.00,,---,0.05,VWS V14.01,2013-06-07 17:38:00,
2013-06-07 13:39:00,52.0,46.7,30.09,ENE,75,5.0,8.0,82,0.00,,---,0.05,VWS V14.01,2013-06-07 17:39:00,
2013-06-07 13:40:00,52.0,47.0,30.09,ENE,58,4.0,9.0,83,0.00,,---,0.05,VWS V14.01,2013-06-07 17:40:00,
2013-06-07 13:43:00,51.8,47.1,30.09,East,81,1.0,9.0,84,0.01,,---,0.06,VWS V14.01,2013-06-07 17:43:00,
2013-06-07 13:44:00,51.8,47.1,30.09,ENE,63,5.0,9.0,84,0.01,,---,0.06,VWS V14.01,2013-06-07 17:44:00,
2013-06-07 13:45:00,51.8,47.4,30.09,NNE,32,3.0,9.0,85,0.01,,---,0.06,VWS V14.01,2013-06-07 17:45:00,
2013-06-07 13:46:00,51.7,47.3,30.09,East,79,1.0,9.0,85,0.01,,---,0.06,VWS V14.01,2013-06-07 17:46:00,
2013-06-07 13:48:00,51.7,47.3,30.09,NE,51,1.0,9.0,85,0.01,,---,0.06,VWS V14.01,2013-06-07 17:48:00,
2013-06-07 13:49:00,51.6,47.6,30.09,NE,48,1.0,9.0,86,0.01,,---,0.06,VWS V14.01,2013-06-07 17:49:00,
2013-06-07 13:50:00,51.6,47.6,30.09,NE,56,1.0,9.0,86,0.01,,---,0.06,VWS V14.01,2013-06-07 17:50:00,
2013-06-07 13:51:00,51.7,48.0,30.09,East,84,1.0,9.0,87,0.01,,---,0.06,VWS V14.01,2013-06-07 17:51:00,
2013-06-07 13:52:00,51.7,48.0,30.09,ENE,72,4.0,9.0,87,0.01,,---,0.06,VWS V14.01,2013-06-07 17:52:00,
2013-06-07 13:54:00,51.6,47.9,30.09,NE,44,2.0,9.0,87,0.02,,---,0.07,VWS V14.01,2013-06-07 17:54:00,
2013-06-07 13:56:00,51.5,47.8,30.09,NNE,27,1.0,9.0,87,0.02,,---,0.07,VWS V14.01,2013-06-07 17:56:00,
2013-06-07 13:57:00,51.4,47.7,30.09,NNE,30,2.0,9.0,87,0.02,,---,0.07,VWS V14.01,2013-06-07 17:57:00,
2013-06-07 13:59:00,51.2,47.8,30.09,NE,34,2.0,4.0,88,0.02,,---,0.07,VWS V14.01,2013-06-07 17:59:00,
2013-06-07 14:00:00,51.2,47.8,30.09,NNE,27,1.0,4.0,88,0.02,,---,0.07,VWS V14.01,2013-06-07 18:00:00,
2013-06-07 14:02:00,51.2,48.1,30.09,ENE,66,5.0,5.0,89,0.02,,---,0.07,VWS V14.01,2013-06-07 18:02:00,
2013-06-07 14:03:00,51.2,48.4,30.09,NE,50,2.0,5.0,90,0.02,,---,0.07,VWS V14.01,2013-06-07 18:03:00,
2013-06-07 14:04:00,51.2,48.4,30.09,ENE,62,2.0,5.0,90,0.02,,---,0.07,VWS V14.01,2013-06-07 18:04:00,
2013-06-07 14:06:00,51.2,48.4,30.09,ENE,67,3.0,5.0,90,0.03,,---,0.08,VWS V14.01,2013-06-07 18:06:00,
2013-06-07 14:08:00,51.2,48.7,30.09,NE,53,1.0,6.0,91,0.03,,---,0.08,VWS V14.01,2013-06-07 18:08:00,
2013-06-07 14:09:00,51.2,48.7,30.09,ENE,66,1.0,6.0,91,0.03,,---,0.08,VWS V14.01,2013-06-07 18:09:00,
2013-06-07 14:10:00,51.2,48.7,30.08,East,85,5.0,6.0,91,0.03,,---,0.08,VWS V14.01,2013-06-07 18:10:00,
2013-06-07 14:11:00,51.3,49.1,30.08,ENE,65,4.0,6.0,92,0.03,,---,0.08,VWS V14.01,2013-06-07 18:11:00,
2013-06-07 14:15:00,51.0,48.5,30.08,ENE,78,4.0,6.0,91,0.03,,---,0.08,VWS V14.01,2013-06-07 18:15:00,
2013-06-07 14:17:00,50.9,48.7,30.08,ENE,57,2.0,6.0,92,0.03,,---,0.08,VWS V14.01,2013-06-07 18:17:00,
2013-06-07 14:20:00,50.8,48.6,30.09,ENE,67,2.0,6.0,92,0.03,,---,0.08,VWS V14.01,2013-06-07 18:20:00,
2013-06-07 14:21:00,50.9,48.7,30.09,East,81,3.0,6.0,92,0.03,,---,0.08,VWS V14.01,2013-06-07 18:21:00,
2013-06-07 14:22:00,50.9,49.0,30.09,ESE,105,3.0,6.0,93,0.03,,---,0.08,VWS V14.01,2013-06-07 18:22:00,
2013-06-07 14:23:00,51.0,49.0,30.08,ENE,70,2.0,6.0,93,0.03,,---,0.08,VWS V14.01,2013-06-07 18:23:00,
2013-06-07 14:27:00,51.2,49.2,30.08,ENE,75,5.0,6.0,93,0.03,,---,0.08,VWS V14.01,2013-06-07 18:27:00,
2013-06-07 14:28:00,51.1,49.2,30.08,NE,46,2.0,6.0,93,0.03,,---,0.08,VWS V14.01,2013-06-07 18:28:00,
2013-06-07 14:32:00,51.0,49.0,30.08,ENE,60,0.0,3.0,93,0.03,,---,0.08,VWS V14.01,2013-06-07 18:32:00,
2013-06-07 14:33:00,51.1,49.2,30.08,ENE,60,2.0,3.0,93,0.03,,---,0.08,VWS V14.01,2013-06-07 18:33:00,
2013-06-07 14:35:00,51.1,49.2,30.08,ENE,72,3.0,3.0,93,0.03,,---,0.08,VWS V14.01,2013-06-07 18:35:00,
2013-06-07 14:37:00,51.1,49.2,30.08,ENE,62,1.0,3.0,93,0.03,,---,0.08,VWS V14.01,2013-06-07 18:37:00,
2013-06-07 14:39:00,51.1,49.2,30.08,East,82,2.0,3.0,93,0.03,,---,0.08,VWS V14.01,2013-06-07 18:39:00,
2013-06-07 14:40:00,51.2,49.2,30.08,ENE,72,1.0,3.0,93,0.03,,---,0.08,VWS V14.01,2013-06-07 18:40:00,
2013-06-07 14:41:00,51.3,49.6,30.08,ENE,70,2.0,3.0,94,0.03,,---,0.08,VWS V14.01,2013-06-07 18:41:00,
2013-06-07 14:43:00,51.5,49.8,30.09,NE,55,1.0,3.0,94,0.03,,---,0.08,VWS V14.01,2013-06-07 18:43:00,
2013-06-07 14:45:00,51.6,49.9,30.09,NW,325,1.0,3.0,94,0.03,,---,0.08,VWS V14.01,2013-06-07 18:45:00,
2013-06-07 14:46:00,51.7,50.0,30.09,ESE,117,3.0,3.0,94,0.03,,---,0.08,VWS V14.01,2013-06-07 18:46:00,
2013-06-07 14:49:00,51.8,50.1,30.09,ESE,110,1.0,4.0,94,0.03,,---,0.08,VWS V14.01,2013-06-07 18:49:00,
2013-06-07 14:51:00,51.9,50.2,30.09,East,82,1.0,4.0,94,0.03,,---,0.08,VWS V14.01,2013-06-07 18:51:00,
2013-06-07 14:55:00,52.1,50.4,30.09,ENE,62,1.0,6.0,94,0.04,,---,0.09,VWS V14.01,2013-06-07 18:55:00,
2013-06-07 14:57:00,52.1,50.4,30.09,ENE,68,0.0,6.0,94,0.04,,---,0.09,VWS V14.01,2013-06-07 18:57:00,
2013-06-07 14:58:00,52.1,50.4,30.09,ENE,77,2.0,6.0,94,0.04,,---,0.09,VWS V14.01,2013-06-07 18:58:00,
2013-06-07 15:01:00,52.2,50.2,30.09,ENE,72,2.0,8.0,93,0.02,,---,0.09,VWS V14.01,2013-06-07 19:01:00,
2013-06-07 15:02:00,52.2,50.2,30.09,ENE,61,3.0,8.0,93,0.02,,---,0.09,VWS V14.01,2013-06-07 19:02:00,
2013-06-07 15:03:00,52.2,50.2,30.09,NE,46,1.0,8.0,93,0.02,,---,0.09,VWS V14.01,2013-06-07 19:03:00,
2013-06-07 15:04:00,52.2,50.2,30.09,NE,39,1.0,8.0,93,0.02,,---,0.09,VWS V14.01,2013-06-07 19:04:00,
2013-06-07 15:07:00,52.2,50.2,30.09,ENE,58,3.0,8.0,93,0.02,,---,0.09,VWS V14.01,2013-06-07 19:07:00,
2013-06-07 15:08:00,52.2,50.2,30.08,ENE,58,2.0,8.0,93,0.02,,---,0.09,VWS V14.01,2013-06-07 19:08:00,
2013-06-07 15:09:00,52.2,50.2,30.08,NNE,27,3.0,8.0,93,0.02,,---,0.09,VWS V14.01,2013-06-07 19:09:00,
2013-06-07 15:10:00,52.2,50.2,30.08,North,9,2.0,8.0,93,0.02,,---,0.09,VWS V14.01,2013-06-07 19:10:00,
2013-06-07 15:12:00,52.2,50.2,30.08,ENE,72,0.0,8.0,93,0.02,,---,0.09,VWS V14.01,2013-06-07 19:12:00,
2013-06-07 15:15:00,52.3,50.3,30.08,ENE,63,1.0,8.0,93,0.02,,---,0.09,VWS V14.01,2013-06-07 19:15:00,
2013-06-07 15:17:00,52.4,50.4,30.08,NNW,332,0.0,8.0,93,0.02,,---,0.09,VWS V14.01,2013-06-07 19:17:00,
2013-06-07 15:18:00,52.4,50.7,30.08,NE,51,1.0,8.0,94,0.02,,---,0.09,VWS V14.01,2013-06-07 19:18:00,
2013-06-07 15:20:00,52.5,50.8,30.08,SE,126,1.0,8.0,94,0.03,,---,0.10,VWS V14.01,2013-06-07 19:20:00,
2013-06-07 15:23:00,52.6,50.9,30.08,NNW,336,0.0,8.0,94,0.03,,---,0.10,VWS V14.01,2013-06-07 19:23:00,
2013-06-07 15:25:00,52.9,51.2,30.08,NE,56,2.0,8.0,94,0.03,,---,0.10,VWS V14.01,2013-06-07 19:25:00,
2013-06-07 15:27:00,52.9,51.2,30.08,NE,42,1.0,8.0,94,0.03,,---,0.10,VWS V14.01,2013-06-07 19:27:00,
2013-06-07 15:28:00,52.9,51.2,30.08,NE,54,0.0,8.0,94,0.03,,---,0.10,VWS V14.01,2013-06-07 19:28:00,
2013-06-07 15:30:00,52.9,50.9,30.08,NNW,341,0.0,4.0,93,0.02,,---,0.10,VWS V14.01,2013-06-07 19:30:00,
2013-06-07 15:32:00,52.9,50.9,30.08,NNW,335,0.0,4.0,93,0.02,,---,0.10,VWS V14.01,2013-06-07 19:32:00,
2013-06-07 15:33:00,53.0,51.3,30.08,NNW,335,0.0,4.0,94,0.02,,---,0.10,VWS V14.01,2013-06-07 19:33:00,
2013-06-07 15:34:00,53.0,51.3,30.08,North,1,1.0,4.0,94,0.02,,---,0.10,VWS V14.01,2013-06-07 19:34:00,
2013-06-07 15:35:00,53.0,51.3,30.08,North,1,0.0,4.0,94,0.02,,---,0.10,VWS V14.01,2013-06-07 19:35:00,
2013-06-07 15:38:00,53.1,51.4,30.08,North,353,2.0,4.0,94,0.02,,---,0.10,VWS V14.01,2013-06-07 19:38:00,
2013-06-07 15:39:00,53.1,51.4,30.08,NNW,338,4.0,5.0,94,0.02,,---,0.10,VWS V14.01,2013-06-07 19:39:00,
2013-06-07 15:40:00,53.1,51.1,30.08,NE,45,0.0,5.0,93,0.02,,---,0.10,VWS V14.01,2013-06-07 19:40:00,
2013-06-07 15:43:00,53.2,51.5,30.07,NE,34,0.0,5.0,94,0.02,,---,0.10,VWS V14.01,2013-06-07 19:43:00,
2013-06-07 15:44:00,53.2,51.5,30.07,North,4,0.0,5.0,94,0.03,,---,0.11,VWS V14.01,2013-06-07 19:44:00,
2013-06-07 15:45:00,53.2,51.5,30.08,NW,309,0.0,5.0,94,0.03,,---,0.11,VWS V14.01,2013-06-07 19:45:00,
2013-06-07 15:46:00,53.2,51.5,30.08,NW,311,0.0,5.0,94,0.03,,---,0.11,VWS V14.01,2013-06-07 19:46:00,
2013-06-07 15:49:00,53.3,51.6,30.08,NW,305,0.0,5.0,94,0.03,,---,0.11,VWS V14.01,2013-06-07 19:49:00,
2013-06-07 15:51:00,53.3,51.6,30.08,NE,37,1.0,5.0,94,0.03,,---,0.11,VWS V14.01,2013-06-07 19:51:00,
2013-06-07 15:52:00,53.3,51.6,30.07,North,356,2.0,5.0,94,0.04,,---,0.12,VWS V14.01,2013-06-07 19:52:00,
2013-06-07 15:54:00,53.3,51.6,30.08,NE,41,0.0,5.0,94,0.04,,---,0.12,VWS V14.01,2013-06-07 19:54:00,
2013-06-07 15:56:00,53.3,51.6,30.07,North,11,0.0,5.0,94,0.04,,---,0.12,VWS V14.01,2013-06-07 19:56:00,
2013-06-07 15:57:00,53.3,51.6,30.07,NNE,12,0.0,5.0,94,0.04,,---,0.12,VWS V14.01,2013-06-07 19:57:00,
2013-06-07 15:59:00,53.3,51.6,30.07,NE,56,1.0,2.0,94,0.04,,---,0.13,VWS V14.01,2013-06-07 19:59:00,
2013-06-07 16:01:00,53.4,51.7,30.07,ENE,65,1.0,2.0,94,0.04,,---,0.13,VWS V14.01,2013-06-07 20:01:00,
2013-06-07 16:02:00,53.4,51.7,30.07,East,87,0.0,2.0,94,0.04,,---,0.13,VWS V14.01,2013-06-07 20:02:00,
2013-06-07 16:05:00,53.4,51.7,30.07,ENE,58,0.0,2.0,94,0.05,,---,0.14,VWS V14.01,2013-06-07 20:05:00,
2013-06-07 16:07:00,53.5,51.8,30.07,ENE,57,0.0,2.0,94,0.05,,---,0.14,VWS V14.01,2013-06-07 20:07:00,
2013-06-07 16:08:00,53.5,51.8,30.07,NNE,15,2.0,2.0,94,0.05,,---,0.14,VWS V14.01,2013-06-07 20:08:00,
2013-06-07 16:11:00,53.4,51.7,30.07,NNE,33,0.0,4.0,94,0.06,,---,0.15,VWS V14.01,2013-06-07 20:11:00,
2013-06-07 16:12:00,53.4,51.7,30.07,NNE,32,0.0,4.0,94,0.06,,---,0.15,VWS V14.01,2013-06-07 20:12:00,
2013-06-07 16:13:00,53.4,51.7,30.07,NNW,345,4.0,4.0,94,0.06,,---,0.15,VWS V14.01,2013-06-07 20:13:00,
2013-06-07 16:16:00,53.2,51.5,30.06,NE,43,1.0,4.0,94,0.06,,---,0.15,VWS V14.01,2013-06-07 20:16:00,
2013-06-07 16:17:00,53.2,51.5,30.06,NE,42,2.0,4.0,94,0.06,,---,0.15,VWS V14.01,2013-06-07 20:17:00,
2013-06-07 16:19:00,53.2,51.5,30.06,NNE,18,0.0,4.0,94,0.06,,---,0.15,VWS V14.01,2013-06-07 20:19:00,
2013-06-07 16:20:00,53.2,51.5,30.06,NW,316,0.0,4.0,94,0.06,,---,0.15,VWS V14.01,2013-06-07 20:20:00,
2013-06-07 16:22:00,53.2,51.5,30.06,NE,50,1.0,4.0,94,0.06,,---,0.15,VWS V14.01,2013-06-07 20:22:00,
2013-06-07 16:23:00,53.2,51.5,30.06,NNW,333,0.0,4.0,94,0.06,,---,0.15,VWS V14.01,2013-06-07 20:23:00,
2013-06-07 16:24:00,53.2,51.5,30.06,North,349,0.0,4.0,94,0.06,,---,0.15,VWS V14.01,2013-06-07 20:24:00,
2013-06-07 16:26:00,53.3,51.6,30.06,NE,50,0.0,4.0,94,0.06,,---,0.15,VWS V14.01,2013-06-07 20:26:00,
2013-06-07 16:27:00,53.2,51.5,30.06,ENE,60,1.0,4.0,94,0.06,,---,0.15,VWS V14.01,2013-06-07 20:27:00,
2013-06-07 16:29:00,53.2,51.5,30.06,NE,47,1.0,2.0,94,0.05,,---,0.15,VWS V14.01,2013-06-07 20:29:00,
2013-06-07 16:30:00,53.2,51.5,30.05,NE,49,0.0,2.0,94,0.05,,---,0.15,VWS V14.01,2013-06-07 20:30:00,
2013-06-07 16:32:00,53.2,51.5,30.05,NE,43,1.0,3.0,94,0.05,,---,0.15,VWS V14.01,2013-06-07 20:32:00,
2013-06-07 16:34:00,53.3,51.6,30.05,NE,49,1.0,3.0,94,0.05,,---,0.15,VWS V14.01,2013-06-07 20:34:00,
2013-06-07 16:35:00,53.3,51.6,30.05,NE,49,0.0,3.0,94,0.05,,---,0.15,VWS V14.01,2013-06-07 20:35:00,
2013-06-07 16:38:00,53.3,51.6,30.05,ENE,64,2.0,4.0,94,0.06,,---,0.16,VWS V14.01,2013-06-07 20:38:00,
2013-06-07 16:39:00,53.4,51.7,30.05,NNE,18,1.0,4.0,94,0.06,,---,0.16,VWS V14.01,2013-06-07 20:39:00,
2013-06-07 16:40:00,53.3,51.6,30.05,NNE,16,1.0,4.0,94,0.06,,---,0.16,VWS V14.01,2013-06-07 20:40:00,
2013-06-07 16:41:00,53.3,51.6,30.05,NNE,32,2.0,4.0,94,0.06,,---,0.16,VWS V14.01,2013-06-07 20:41:00,
2013-06-07 16:45:00,53.1,51.4,30.05,NE,49,4.0,5.0,94,0.06,,---,0.16,VWS V14.01,2013-06-07 20:45:00,
2013-06-07 16:46:00,53.1,51.1,30.05,NNW,330,1.0,5.0,93,0.06,,---,0.16,VWS V14.01,2013-06-07 20:46:00,
2013-06-07 16:48:00,53.0,51.3,30.05,ENE,57,3.0,5.0,94,0.06,,---,0.16,VWS V14.01,2013-06-07 20:48:00,
2013-06-07 16:50:00,53.0,51.3,30.05,ENE,57,2.0,5.0,94,0.06,,---,0.16,VWS V14.01,2013-06-07 20:50:00,
2013-06-07 16:51:00,53.0,51.0,30.05,NNW,343,1.0,5.0,93,0.06,,---,0.16,VWS V14.01,2013-06-07 20:51:00,
2013-06-07 16:54:00,53.1,51.4,30.05,ENE,75,4.0,5.0,94,0.06,,---,0.16,VWS V14.01,2013-06-07 20:54:00,
2013-06-07 16:55:00,53.1,51.4,30.05,ENE,57,2.0,5.0,94,0.06,,---,0.16,VWS V14.01,2013-06-07 20:55:00,
2013-06-07 16:56:00,53.1,51.4,30.05,NE,41,1.0,5.0,94,0.06,,---,0.16,VWS V14.01,2013-06-07 20:56:00,
2013-06-07 16:57:00,53.1,51.4,30.04,NE,41,2.0,5.0,94,0.06,,---,0.16,VWS V14.01,2013-06-07 20:57:00,
2013-06-07 17:00:00,53.2,51.5,30.04,NE,51,4.0,4.0,94,0.03,,---,0.16,VWS V14.01,2013-06-07 21:00:00,
2013-06-07 17:01:00,53.2,51.5,30.04,NE,37,3.0,6.0,94,0.03,,---,0.16,VWS V14.01,2013-06-07 21:01:00,
2013-06-07 17:02:00,53.2,51.5,30.04,NE,53,2.0,6.0,94,0.03,,---,0.16,VWS V14.01,2013-06-07 21:02:00,
2013-06-07 17:05:00,53.1,51.4,30.04,NE,53,0.0,6.0,94,0.03,,---,0.16,VWS V14.01,2013-06-07 21:05:00,
2013-06-07 17:06:00,53.1,51.4,30.04,NE,39,2.0,6.0,94,0.03,,---,0.16,VWS V14.01,2013-06-07 21:06:00,
2013-06-07 17:08:00,53.0,51.3,30.04,ENE,65,5.0,10.0,94,0.03,,---,0.16,VWS V14.01,2013-06-07 21:08:00,
2013-06-07 17:11:00,53.0,51.3,30.04,ENE,69,2.0,10.0,94,0.03,,---,0.16,VWS V14.01,2013-06-07 21:11:00,
2013-06-07 17:13:00,53.0,51.3,30.04,NE,40,3.0,10.0,94,0.03,,---,0.16,VWS V14.01,2013-06-07 21:13:00,
2013-06-07 17:14:00,53.0,51.0,30.04,North,353,1.0,10.0,93,0.03,,---,0.16,VWS V14.01,2013-06-07 21:14:00,
2013-06-07 17:18:00,52.8,50.8,30.03,ENE,67,3.0,10.0,93,0.03,,---,0.16,VWS V14.01,2013-06-07 21:18:00,
2013-06-07 17:19:00,52.8,50.8,30.03,NNE,27,5.0,10.0,93,0.03,,---,0.16,VWS V14.01,2013-06-07 21:19:00,
2013-06-07 17:20:00,52.8,50.8,30.03,NE,56,3.0,10.0,93,0.03,,---,0.16,VWS V14.01,2013-06-07 21:20:00,
2013-06-07 17:23:00,52.8,50.8,30.03,North,3,1.0,10.0,93,0.03,,---,0.16,VWS V14.01,2013-06-07 21:23:00,
2013-06-07 17:24:00,52.8,50.8,30.03,North,3,1.0,10.0,93,0.03,,---,0.16,VWS V14.01,2013-06-07 21:24:00,
2013-06-07 17:27:00,52.8,50.8,30.03,ENE,75,1.0,10.0,93,0.03,,---,0.16,VWS V14.01,2013-06-07 21:27:00,
2013-06-07 17:29:00,52.8,50.8,30.03,ENE,64,2.0,3.0,93,0.01,,---,0.16,VWS V14.01,2013-06-07 21:29:00,
2013-06-07 17:30:00,52.8,50.8,30.03,NE,34,2.0,3.0,93,0.01,,---,0.16,VWS V14.01,2013-06-07 21:30:00,
2013-06-07 17:32:00,52.7,50.7,30.03,NE,51,2.0,4.0,93,0.01,,---,0.16,VWS V14.01,2013-06-07 21:32:00,
2013-06-07 17:35:00,52.7,50.7,30.03,ENE,67,0.0,4.0,93,0.02,,---,0.17,VWS V14.01,2013-06-07 21:35:00,
2013-06-07 17:36:00,52.7,50.7,30.03,NE,56,2.0,4.0,93,0.02,,---,0.17,VWS V14.01,2013-06-07 21:36:00,
2013-06-07 17:39:00,52.7,50.7,30.03,ENE,75,2.0,4.0,93,0.02,,---,0.17,VWS V14.01,2013-06-07 21:39:00,
2013-06-07 17:40:00,52.7,50.7,30.03,NE,38,5.0,8.0,93,0.02,,---,0.17,VWS V14.01,2013-06-07 21:40:00,
2013-06-07 17:41:00,52.6,50.6,30.02,NE,45,1.0,8.0,93,0.02,,---,0.17,VWS V14.01,2013-06-07 21:41:00,
2013-06-07 17:42:00,52.6,50.6,30.02,NE,43,3.0,8.0,93,0.02,,---,0.17,VWS V14.01,2013-06-07 21:42:00,
2013-06-07 17:45:00,52.6,50.6,30.02,NNE,30,4.0,8.0,93,0.02,,---,0.17,VWS V14.01,2013-06-07 21:45:00,
2013-06-07 17:46:00,52.5,50.5,30.02,NW,312,2.0,8.0,93,0.02,,---,0.17,VWS V14.01,2013-06-07 21:46:00,
2013-06-07 17:47:00,52.5,50.5,30.02,ENE,58,2.0,8.0,93,0.02,,---,0.17,VWS V14.01,2013-06-07 21:47:00,
2013-06-07 17:50:00,52.5,50.5,30.02,ENE,60,2.0,8.0,93,0.02,,---,0.17,VWS V14.01,2013-06-07 21:50:00,
2013-06-07 17:51:00,52.5,50.5,30.02,NE,44,1.0,8.0,93,0.02,,---,0.17,VWS V14.01,2013-06-07 21:51:00,
2013-06-07 17:52:00,52.5,50.5,30.02,ENE,67,1.0,8.0,93,0.02,,---,0.17,VWS V14.01,2013-06-07 21:52:00,
2013-06-07 17:53:00,52.5,50.5,30.02,NNE,26,3.0,8.0,93,0.02,,---,0.17,VWS V14.01,2013-06-07 21:53:00,
2013-06-07 17:55:00,52.5,50.5,30.02,NE,49,0.0,8.0,93,0.02,,---,0.17,VWS V14.01,2013-06-07 21:55:00,
2013-06-07 17:56:00,52.5,50.5,30.02,North,355,2.0,8.0,93,0.02,,---,0.17,VWS V14.01,2013-06-07 21:56:00,
2013-06-07 17:58:00,52.5,50.5,30.02,NNE,33,1.0,1.0,93,0.02,,---,0.18,VWS V14.01,2013-06-07 21:58:00,
2013-06-07 17:59:00,52.5,50.8,30.02,ENE,58,3.0,3.0,94,0.02,,---,0.18,VWS V14.01,2013-06-07 21:59:00,
2013-06-07 18:01:00,52.5,50.8,30.02,NNW,336,3.0,4.0,94,0.02,,---,0.18,VWS V14.01,2013-06-07 22:01:00,
2013-06-07 18:04:00,52.5,50.8,30.02,North,9,1.0,4.0,94,0.02,,---,0.18,VWS V14.01,2013-06-07 22:04:00,
2013-06-07 18:06:00,52.6,50.9,30.02,NE,56,0.0,5.0,94,0.02,,---,0.18,VWS V14.01,2013-06-07 22:06:00,
2013-06-07 18:09:00,52.6,50.9,30.02,ENE,63,4.0,6.0,94,0.02,,---,0.18,VWS V14.01,2013-06-07 22:09:00,
2013-06-07 18:10:00,52.5,50.5,30.02,NNE,27,2.0,6.0,93,0.02,,---,0.18,VWS V14.01,2013-06-07 22:10:00,
2013-06-07 18:12:00,52.5,50.5,30.02,ENE,62,7.0,7.0,93,0.02,,---,0.18,VWS V14.01,2013-06-07 22:12:00,
2013-06-07 18:14:00,52.5,50.8,30.02,East,82,3.0,7.0,94,0.02,,---,0.18,VWS V14.01,2013-06-07 22:14:00,
2013-06-07 18:16:00,52.5,50.8,30.02,ENE,74,5.0,7.0,94,0.03,,---,0.19,VWS V14.01,2013-06-07 22:16:00,
2013-06-07 18:18:00,52.5,50.8,30.02,NNE,15,1.0,7.0,94,0.03,,---,0.19,VWS V14.01,2013-06-07 22:18:00,
2013-06-07 18:20:00,52.5,50.8,30.02,NE,56,2.0,7.0,94,0.03,,---,0.19,VWS V14.01,2013-06-07 22:20:00,
2013-06-07 18:21:00,52.5,50.8,30.02,NE,45,6.0,7.0,94,0.03,,---,0.19,VWS V14.01,2013-06-07 22:21:00,
2013-06-07 18:23:00,52.5,50.8,30.02,ENE,68,3.0,7.0,94,0.03,,---,0.19,VWS V14.01,2013-06-07 22:23:00,
2013-06-07 18:25:00,52.5,50.8,30.02,ESE,106,1.0,7.0,94,0.03,,---,0.19,VWS V14.01,2013-06-07 22:25:00,
2013-06-07 18:26:00,52.5,50.8,30.02,NE,44,3.0,7.0,94,0.03,,---,0.19,VWS V14.01,2013-06-07 22:26:00,
2013-06-07 18:28:00,52.5,50.8,30.02,NE,34,2.0,7.0,94,0.03,,---,0.19,VWS V14.01,2013-06-07 22:28:00,
2013-06-07 18:30:00,52.5,50.8,30.02,NNE,30,3.0,6.0,94,0.04,,---,0.20,VWS V14.01,2013-06-07 22:30:00,
2013-06-07 18:33:00,52.5,50.8,30.02,NNE,25,4.0,6.0,94,0.04,,---,0.20,VWS V14.01,2013-06-07 22:33:00,
2013-06-07 18:34:00,52.5,50.8,30.02,NE,48,5.0,6.0,94,0.04,,---,0.20,VWS V14.01,2013-06-07 22:34:00,
2013-06-07 18:35:00,52.5,50.8,30.02,NE,53,7.0,7.0,94,0.04,,---,0.20,VWS V14.01,2013-06-07 22:35:00,
2013-06-07 18:40:00,52.4,50.7,30.02,NNE,23,3.0,11.0,94,0.04,,---,0.20,VWS V14.01,2013-06-07 22:40:00,
2013-06-07 18:41:00,52.4,50.7,30.02,NE,47,4.0,11.0,94,0.04,,---,0.20,VWS V14.01,2013-06-07 22:41:00,
2013-06-07 18:46:00,52.2,50.2,30.02,NE,40,3.0,11.0,93,0.05,,---,0.21,VWS V14.01,2013-06-07 22:46:00,
2013-06-07 18:47:00,52.1,50.1,30.02,ENE,57,2.0,11.0,93,0.05,,---,0.21,VWS V14.01,2013-06-07 22:47:00,
2013-06-07 18:48:00,52.1,50.1,30.02,NE,55,1.0,11.0,93,0.05,,---,0.21,VWS V14.01,2013-06-07 22:48:00,
2013-06-07 18:51:00,52.1,50.4,30.02,NE,44,2.0,13.0,94,0.05,,---,0.21,VWS V14.01,2013-06-07 22:51:00,
2013-06-07 18:52:00,52.0,50.3,30.02,NE,39,2.0,13.0,94,0.05,,---,0.21,VWS V14.01,2013-06-07 22:52:00,
2013-06-07 18:53:00,52.0,50.0,30.03,ENE,67,2.0,13.0,93,0.05,,---,0.21,VWS V14.01,2013-06-07 22:53:00,
2013-06-07 18:57:00,52.0,50.3,30.03,ESE,111,3.0,13.0,94,0.06,,---,0.22,VWS V14.01,2013-06-07 22:57:00,
2013-06-07 18:58:00,52.0,50.3,30.03,NE,47,2.0,13.0,94,0.06,,---,0.22,VWS V14.01,2013-06-07 22:58:00,
2013-06-07 19:03:00,51.9,50.2,30.03,NE,53,2.0,4.0,94,0.05,,---,0.23,VWS V14.01,2013-06-07 23:03:00,
2013-06-07 19:04:00,51.9,50.2,30.03,ENE,65,2.0,4.0,94,0.05,,---,0.23,VWS V14.01,2013-06-07 23:04:00,
2013-06-07 19:09:00,51.8,50.1,30.03,ENE,65,2.0,5.0,94,0.06,,---,0.24,VWS V14.01,2013-06-07 23:09:00,
2013-06-07 19:10:00,51.8,50.1,30.03,ENE,60,2.0,5.0,94,0.06,,---,0.24,VWS V14.01,2013-06-07 23:10:00,
2013-06-07 19:14:00,51.7,50.0,30.03,NNE,32,4.0,5.0,94,0.06,,---,0.24,VWS V14.01,2013-06-07 23:14:00,
2013-06-07 19:15:00,51.7,50.0,30.03,NNE,22,3.0,7.0,94,0.07,,---,0.25,VWS V14.01,2013-06-07 23:15:00,
2013-06-07 19:17:00,51.6,49.9,30.03,NE,53,4.0,7.0,94,0.07,,---,0.25,VWS V14.01,2013-06-07 23:17:00,
2013-06-07 19:19:00,51.6,49.9,30.03,ENE,60,5.0,8.0,94,0.07,,---,0.25,VWS V14.01,2013-06-07 23:19:00,
2013-06-07 19:20:00,51.5,49.8,30.03,NE,48,1.0,8.0,94,0.07,,---,0.25,VWS V14.01,2013-06-07 23:20:00,
2013-06-07 19:22:00,51.5,49.8,30.02,NE,56,1.0,8.0,94,0.07,,---,0.25,VWS V14.01,2013-06-07 23:22:00,
2013-06-07 19:25:00,51.5,49.8,30.02,NNW,340,4.0,8.0,94,0.08,,---,0.26,VWS V14.01,2013-06-07 23:25:00,
2013-06-07 19:26:00,51.5,49.8,30.02,ENE,60,4.0,8.0,94,0.08,,---,0.26,VWS V14.01,2013-06-07 23:26:00,
2013-06-07 19:28:00,51.4,49.7,30.02,NE,46,2.0,8.0,94,0.08,,---,0.26,VWS V14.01,2013-06-07 23:28:00,
2013-06-07 19:31:00,51.3,49.6,30.02,East,92,5.0,10.0,94,0.07,,---,0.26,VWS V14.01,2013-06-07 23:31:00,
2013-06-07 19:33:00,51.2,49.5,30.02,ENE,72,2.0,10.0,94,0.07,,---,0.26,VWS V14.01,2013-06-07 23:33:00,
2013-06-07 19:36:00,51.1,49.4,30.02,NE,34,2.0,10.0,94,0.08,,---,0.27,VWS V14.01,2013-06-07 23:36:00,
2013-06-07 19:37:00,51.0,49.3,30.02,ENE,63,3.0,10.0,94,0.08,,---,0.27,VWS V14.01,2013-06-07 23:37:00,
2013-06-07 19:38:00,51.0,49.3,30.02,NE,45,3.0,10.0,94,0.08,,---,0.27,VWS V14.01,2013-06-07 23:38:00,
2013-06-07 19:39:00,51.0,49.3,30.02,NE,47,3.0,10.0,94,0.08,,---,0.27,VWS V14.01,2013-06-07 23:39:00,
2013-06-07 19:42:00,51.0,49.3,30.02,NE,39,2.0,10.0,94,0.08,,---,0.27,VWS V14.01,2013-06-07 23:42:00,
2013-06-07 19:43:00,51.0,49.6,30.02,NE,50,3.0,10.0,95,0.09,,---,0.28,VWS V14.01,2013-06-07 23:43:00,
2013-06-07 19:44:00,51.0,49.6,30.02,ENE,68,3.0,10.0,95,0.09,,---,0.28,VWS V14.01,2013-06-07 23:44:00,
2013-06-07 19:47:00,50.9,49.5,30.02,NE,53,3.0,10.0,95,0.09,,---,0.28,VWS V14.01,2013-06-07 23:47:00,
2013-06-07 19:51:00,50.8,49.4,30.02,NE,37,5.0,10.0,95,0.09,,---,0.28,VWS V14.01,2013-06-07 23:51:00,
2013-06-07 19:53:00,50.7,49.0,30.02,ENE,58,5.0,16.0,94,0.09,,---,0.28,VWS V14.01,2013-06-07 23:53:00,
2013-06-07 19:56:00,50.7,49.0,30.02,East,91,6.0,16.0,94,0.10,,---,0.29,VWS V14.01,2013-06-07 23:56:00,
2013-06-07 19:57:00,50.7,49.0,30.02,ENE,59,6.0,16.0,94,0.10,,---,0.29,VWS V14.01,2013-06-07 23:57:00,
2013-06-07 19:58:00,50.7,49.0,30.02,NE,41,4.0,16.0,94,0.10,,---,0.29,VWS V14.01,2013-06-07 23:58:00,
2013-06-07 20:00:00,50.7,49.0,30.02,ENE,63,3.0,4.0,94,0.07,,---,0.29,VWS V14.01,2013-06-08 00:00:00,
2013-06-07 20:02:00,50.7,49.0,30.02,ENE,69,2.0,4.0,94,0.07,,---,0.29,VWS V14.01,2013-06-08 00:02:00,
2013-06-07 20:03:00,50.6,48.9,30.02,NE,34,1.0,4.0,94,0.07,,---,0.29,VWS V14.01,2013-06-08 00:03:00,
2013-06-07 20:06:00,50.6,48.9,30.02,NE,34,4.0,4.0,94,0.08,,---,0.30,VWS V14.01,2013-06-08 00:06:00,
2013-06-07 20:07:00,50.6,48.9,30.02,NE,46,1.0,5.0,94,0.08,,---,0.30,VWS V14.01,2013-06-08 00:07:00,
2013-06-07 20:08:00,50.6,48.9,30.02,NE,51,2.0,5.0,94,0.08,,---,0.30,VWS V14.01,2013-06-08 00:08:00,
2013-06-07 20:12:00,50.6,48.9,30.01,East,101,1.0,6.0,94,0.08,,---,0.30,VWS V14.01,2013-06-08 00:12:00,
2013-06-07 20:13:00,50.6,48.9,30.01,NNE,27,3.0,6.0,94,0.08,,---,0.30,VWS V14.01,2013-06-08 00:13:00,
2013-06-07 20:14:00,50.6,48.9,30.01,ENE,65,2.0,6.0,94,0.08,,---,0.30,VWS V14.01,2013-06-08 00:14:00,
2013-06-07 20:18:00,50.6,49.2,30.01,ENE,60,2.0,6.0,95,0.09,,---,0.31,VWS V14.01,2013-06-08 00:18:00,
2013-06-07 20:19:00,50.6,49.2,30.01,ENE,75,2.0,6.0,95,0.09,,---,0.31,VWS V14.01,2013-06-08 00:19:00,
2013-06-07 20:22:00,50.6,49.2,30.01,NE,49,1.0,6.0,95,0.09,,---,0.31,VWS V14.01,2013-06-08 00:22:00,
2013-06-07 20:24:00,50.6,49.2,30.01,NE,47,1.0,6.0,95,0.09,,---,0.31,VWS V14.01,2013-06-08 00:24:00,
2013-06-07 20:25:00,50.6,49.2,30.01,NE,51,2.0,6.0,95,0.09,,---,0.31,VWS V14.01,2013-06-08 00:25:00,
2013-06-07 20:26:00,50.6,49.2,30.00,NNE,13,2.0,6.0,95,0.09,,---,0.31,VWS V14.01,2013-06-08 00:26:00,
2013-06-07 20:29:00,50.6,49.2,30.00,ENE,58,5.0,5.0,95,0.06,,---,0.32,VWS V14.01,2013-06-08 00:29:00,
2013-06-07 20:30:00,50.6,49.2,30.00,ENE,60,0.0,5.0,95,0.06,,---,0.32,VWS V14.01,2013-06-08 00:30:00,
2013-06-07 20:31:00,50.6,49.2,30.00,East,80,1.0,5.0,95,0.06,,---,0.32,VWS V14.01,2013-06-08 00:31:00,
2013-06-07 20:33:00,50.7,49.3,30.00,NE,37,1.0,5.0,95,0.06,,---,0.32,VWS V14.01,2013-06-08 00:33:00,
2013-06-07 20:34:00,50.7,49.3,30.00,NNE,22,2.0,5.0,95,0.06,,---,0.32,VWS V14.01,2013-06-08 00:34:00,
2013-06-07 20:35:00,50.7,49.3,30.00,ENE,60,3.0,5.0,95,0.06,,---,0.32,VWS V14.01,2013-06-08 00:35:00,
2013-06-07 20:37:00,50.7,49.3,30.00,ENE,63,2.0,5.0,95,0.07,,---,0.33,VWS V14.01,2013-06-08 00:37:00,
2013-06-07 20:38:00,50.8,49.4,30.00,NE,42,1.0,5.0,95,0.07,,---,0.33,VWS V14.01,2013-06-08 00:38:00,
2013-06-07 20:40:00,50.8,49.4,30.00,East,84,0.0,5.0,95,0.07,,---,0.33,VWS V14.01,2013-06-08 00:40:00,
2013-06-07 20:41:00,50.8,49.4,30.00,ENE,57,2.0,5.0,95,0.07,,---,0.33,VWS V14.01,2013-06-08 00:41:00,
2013-06-07 20:43:00,50.8,49.4,30.00,NE,47,2.0,5.0,95,0.08,,---,0.34,VWS V14.01,2013-06-08 00:43:00,
2013-06-07 20:44:00,50.8,49.4,30.00,ENE,60,2.0,5.0,95,0.08,,---,0.34,VWS V14.01,2013-06-08 00:44:00,
2013-06-07 20:46:00,50.9,49.5,30.00,East,86,2.0,5.0,95,0.08,,---,0.34,VWS V14.01,2013-06-08 00:46:00,
2013-06-07 20:49:00,50.9,49.5,30.00,NE,41,1.0,5.0,95,0.09,,---,0.35,VWS V14.01,2013-06-08 00:49:00,
2013-06-07 20:50:00,50.9,49.5,30.00,ENE,60,1.0,5.0,95,0.09,,---,0.35,VWS V14.01,2013-06-08 00:50:00,
2013-06-07 20:52:00,50.9,49.5,30.00,NNE,33,2.0,5.0,95,0.09,,---,0.35,VWS V14.01,2013-06-08 00:52:00,
2013-06-07 20:54:00,51.0,49.9,29.99,NE,46,0.0,5.0,96,0.10,,---,0.36,VWS V14.01,2013-06-08 00:54:00,
2013-06-07 20:55:00,51.0,49.9,30.00,NNE,25,1.0,5.0,96,0.10,,---,0.36,VWS V14.01,2013-06-08 00:55:00,
2013-06-07 20:58:00,51.1,50.0,30.00,ENE,57,2.0,7.0,96,0.11,,---,0.37,VWS V14.01,2013-06-08 00:58:00,
2013-06-07 20:59:00,51.1,50.0,30.00,ENE,69,2.0,3.0,96,0.08,,---,0.37,VWS V14.01,2013-06-08 00:59:00,
2013-06-07 21:00:00,51.1,50.0,30.00,NE,50,1.0,3.0,96,0.08,,---,0.37,VWS V14.01,2013-06-08 01:00:00,
2013-06-07 21:04:00,51.2,50.1,29.99,NW,326,0.0,3.0,96,0.09,,---,0.38,VWS V14.01,2013-06-08 01:04:00,
2013-06-07 21:05:00,51.2,50.1,29.99,NE,46,5.0,5.0,96,0.09,,---,0.38,VWS V14.01,2013-06-08 01:05:00,
2013-06-07 21:08:00,51.2,50.1,29.99,NNE,32,1.0,5.0,96,0.09,,---,0.38,VWS V14.01,2013-06-08 01:08:00,
2013-06-07 21:10:00,51.2,50.1,29.99,North,1,0.0,5.0,96,0.10,,---,0.39,VWS V14.01,2013-06-08 01:10:00,
2013-06-07 21:11:00,51.2,50.1,29.99,ENE,69,2.0,5.0,96,0.10,,---,0.39,VWS V14.01,2013-06-08 01:11:00,
2013-06-07 21:12:00,51.2,50.1,29.99,NNE,16,0.0,5.0,96,0.10,,---,0.39,VWS V14.01,2013-06-08 01:12:00,
2013-06-07 21:14:00,51.3,50.2,29.99,NE,43,2.0,5.0,96,0.10,,---,0.39,VWS V14.01,2013-06-08 01:14:00,
2013-06-07 21:16:00,51.3,50.2,29.99,NE,41,1.0,5.0,96,0.10,,---,0.39,VWS V14.01,2013-06-08 01:16:00,
2013-06-07 21:17:00,51.3,50.2,29.99,ENE,60,3.0,5.0,96,0.11,,---,0.40,VWS V14.01,2013-06-08 01:17:00,
2013-06-07 21:18:00,51.3,50.2,29.99,WNW,302,1.0,5.0,96,0.11,,---,0.40,VWS V14.01,2013-06-08 01:18:00,
2013-06-07 21:19:00,51.3,50.2,29.99,North,352,1.0,5.0,96,0.11,,---,0.40,VWS V14.01,2013-06-08 01:19:00,
2013-06-07 21:21:00,51.3,50.2,29.99,NE,50,0.0,5.0,96,0.11,,---,0.40,VWS V14.01,2013-06-08 01:21:00,
2013-06-07 21:22:00,51.3,50.2,29.99,NE,36,2.0,5.0,96,0.11,,---,0.40,VWS V14.01,2013-06-08 01:22:00,
2013-06-07 21:24:00,51.3,50.2,29.99,NNE,30,0.0,5.0,96,0.12,,---,0.41,VWS V14.01,2013-06-08 01:24:00,
2013-06-07 21:26:00,51.3,50.2,29.98,East,79,1.0,5.0,96,0.12,,---,0.41,VWS V14.01,2013-06-08 01:26:00,
2013-06-07 21:28:00,51.2,50.1,29.98,East,81,5.0,5.0,96,0.12,,---,0.41,VWS V14.01,2013-06-08 01:28:00,
2013-06-07 21:29:00,51.2,50.1,29.98,East,80,1.0,7.0,96,0.09,,---,0.41,VWS V14.01,2013-06-08 01:29:00,
2013-06-07 21:32:00,51.3,50.2,29.98,NE,45,2.0,7.0,96,0.10,,---,0.42,VWS V14.01,2013-06-08 01:32:00,
2013-06-07 21:33:00,51.3,50.2,29.98,NE,50,4.0,7.0,96,0.10,,---,0.42,VWS V14.01,2013-06-08 01:33:00,
2013-06-07 21:34:00,51.3,50.2,29.98,NE,43,3.0,7.0,96,0.10,,---,0.42,VWS V14.01,2013-06-08 01:34:00,
2013-06-07 21:35:00,51.3,50.2,29.98,ENE,58,1.0,7.0,96,0.10,,---,0.42,VWS V14.01,2013-06-08 01:35:00,
2013-06-07 21:38:00,51.3,50.2,29.98,NE,37,4.0,10.0,96,0.10,,---,0.42,VWS V14.01,2013-06-08 01:38:00,
2013-06-07 21:42:00,51.3,50.2,29.98,East,83,4.0,10.0,96,0.11,,---,0.43,VWS V14.01,2013-06-08 01:42:00,
2013-06-07 21:43:00,51.3,50.2,29.98,NNE,30,1.0,10.0,96,0.12,,---,0.44,VWS V14.01,2013-06-08 01:43:00,
2013-06-07 21:44:00,51.3,50.2,29.98,NNE,32,1.0,10.0,96,0.12,,---,0.44,VWS V14.01,2013-06-08 01:44:00,
2013-06-07 21:45:00,51.3,50.2,29.98,NNE,31,0.0,10.0,96,0.12,,---,0.44,VWS V14.01,2013-06-08 01:45:00,
2013-06-07 21:47:00,51.3,50.2,29.98,NNE,20,5.0,10.0,96,0.13,,---,0.45,VWS V14.01,2013-06-08 01:47:00,
2013-06-07 21:49:00,51.3,50.2,29.98,NNW,332,1.0,10.0,96,0.13,,---,0.45,VWS V14.01,2013-06-08 01:49:00,
2013-06-07 21:50:00,51.3,50.2,29.98,NNW,340,0.0,10.0,96,0.14,,---,0.46,VWS V14.01,2013-06-08 01:50:00,
2013-06-07 21:51:00,51.3,50.2,29.98,NNE,15,2.0,10.0,96,0.14,,---,0.46,VWS V14.01,2013-06-08 01:51:00,
2013-06-07 21:53:00,51.4,50.3,29.98,ENE,74,2.0,10.0,96,0.15,,---,0.47,VWS V14.01,2013-06-08 01:53:00,
2013-06-07 21:55:00,51.4,50.3,29.98,North,356,1.0,10.0,96,0.16,,---,0.48,VWS V14.01,2013-06-08 01:55:00,
2013-06-07 21:56:00,51.4,50.3,29.98,NE,40,0.0,10.0,96,0.16,,---,0.48,VWS V14.01,2013-06-08 01:56:00,
2013-06-07 21:57:00,51.4,50.3,29.98,NNW,347,1.0,10.0,96,0.16,,---,0.48,VWS V14.01,2013-06-08 01:57:00,
2013-06-07 21:58:00,51.4,50.3,29.98,NE,39,3.0,10.0,96,0.17,,---,0.49,VWS V14.01,2013-06-08 01:58:00,
2013-06-07 22:00:00,51.4,50.3,29.97,ENE,70,1.0,4.0,96,0.12,,---,0.49,VWS V14.01,2013-06-08 02:00:00,
2013-06-07 22:02:00,51.4,50.3,29.97,ENE,69,2.0,5.0,96,0.13,,---,0.50,VWS V14.01,2013-06-08 02:02:00,
2013-06-07 22:04:00,51.4,50.3,29.97,NE,44,4.0,7.0,96,0.13,,---,0.50,VWS V14.01,2013-06-08 02:04:00,
2013-06-07 22:06:00,51.4,50.3,29.97,NE,49,3.0,7.0,96,0.14,,---,0.51,VWS V14.01,2013-06-08 02:06:00,
2013-06-07 22:08:00,51.4,50.3,29.97,ENE,72,4.0,8.0,96,0.14,,---,0.51,VWS V14.01,2013-06-08 02:08:00,
2013-06-07 22:09:00,51.4,50.3,29.97,ENE,67,4.0,8.0,96,0.15,,---,0.52,VWS V14.01,2013-06-08 02:09:00,
2013-06-07 22:10:00,51.4,50.3,29.97,NE,44,3.0,8.0,96,0.15,,---,0.52,VWS V14.01,2013-06-08 02:10:00,
2013-06-07 22:11:00,51.5,50.4,29.97,NE,35,3.0,8.0,96,0.15,,---,0.52,VWS V14.01,2013-06-08 02:11:00,
2013-06-07 22:13:00,51.5,50.4,29.97,NE,42,0.0,8.0,96,0.15,,---,0.52,VWS V14.01,2013-06-08 02:13:00,
2013-06-07 22:15:00,51.5,50.4,29.97,NW,313,1.0,8.0,96,0.16,,---,0.53,VWS V14.01,2013-06-08 02:15:00,
2013-06-07 22:17:00,51.5,50.4,29.97,ENE,60,2.0,8.0,96,0.16,,---,0.53,VWS V14.01,2013-06-08 02:17:00,
2013-06-07 22:20:00,51.5,50.4,29.96,ENE,65,2.0,8.0,96,0.17,,---,0.54,VWS V14.01,2013-06-08 02:20:00,
2013-06-07 22:21:00,51.6,50.5,29.96,NNE,27,1.0,8.0,96,0.17,,---,0.54,VWS V14.01,2013-06-08 02:21:00,
2013-06-07 22:24:00,51.6,50.5,29.95,ENE,72,6.0,8.0,96,0.17,,---,0.54,VWS V14.01,2013-06-08 02:24:00,
2013-06-07 22:25:00,51.6,50.5,29.95,NE,41,2.0,8.0,96,0.18,,---,0.55,VWS V14.01,2013-06-08 02:25:00,
2013-06-07 22:28:00,51.7,50.6,29.95,NE,41,2.0,4.0,96,0.14,,---,0.55,VWS V14.01,2013-06-08 02:28:00,
2013-06-07 22:29:00,51.7,50.6,29.95,ENE,65,3.0,4.0,96,0.14,,---,0.55,VWS V14.01,2013-06-08 02:29:00,
2013-06-07 22:30:00,51.8,50.7,29.95,ENE,60,3.0,8.0,96,0.14,,---,0.55,VWS V14.01,2013-06-08 02:30:00,
2013-06-07 22:31:00,51.7,50.6,29.95,ENE,67,3.0,8.0,96,0.14,,---,0.55,VWS V14.01,2013-06-08 02:31:00,
2013-06-07 22:33:00,51.8,50.7,29.95,NNE,27,6.0,8.0,96,0.14,,---,0.55,VWS V14.01,2013-06-08 02:33:00,
2013-06-07 22:34:00,51.8,50.7,29.95,WNW,299,3.0,8.0,96,0.14,,---,0.55,VWS V14.01,2013-06-08 02:34:00,
2013-06-07 22:35:00,51.8,50.7,29.95,North,4,3.0,8.0,96,0.14,,---,0.55,VWS V14.01,2013-06-08 02:35:00,
2013-06-07 22:37:00,51.8,50.7,29.94,East,93,2.0,8.0,96,0.14,,---,0.55,VWS V14.01,2013-06-08 02:37:00,
2013-06-07 22:39:00,51.9,50.8,29.94,NE,38,2.0,8.0,96,0.15,,---,0.56,VWS V14.01,2013-06-08 02:39:00,
2013-06-07 22:40:00,51.9,50.8,29.94,NE,47,3.0,8.0,96,0.15,,---,0.56,VWS V14.01,2013-06-08 02:40:00,
2013-06-07 22:42:00,51.9,50.8,29.93,NE,44,0.0,8.0,96,0.15,,---,0.56,VWS V14.01,2013-06-08 02:42:00,
2013-06-07 22:45:00,51.9,50.8,29.93,NW,316,2.0,8.0,96,0.15,,---,0.56,VWS V14.01,2013-06-08 02:45:00,
2013-06-07 22:46:00,52.0,50.9,29.93,NE,38,2.0,8.0,96,0.15,,---,0.56,VWS V14.01,2013-06-08 02:46:00,
2013-06-07 22:47:00,52.0,50.9,29.94,NE,34,3.0,8.0,96,0.15,,---,0.56,VWS V14.01,2013-06-08 02:47:00,
2013-06-07 22:50:00,52.0,50.9,29.94,WNW,298,4.0,8.0,96,0.15,,---,0.56,VWS V14.01,2013-06-08 02:50:00,
2013-06-07 22:51:00,52.0,50.9,29.94,NNE,22,1.0,8.0,96,0.15,,---,0.56,VWS V14.01,2013-06-08 02:51:00,
2013-06-07 22:52:00,52.0,50.9,29.93,NNE,23,1.0,8.0,96,0.15,,---,0.56,VWS V14.01,2013-06-08 02:52:00,
2013-06-07 22:55:00,52.0,50.9,29.93,ENE,74,4.0,8.0,96,0.15,,---,0.56,VWS V14.01,2013-06-08 02:55:00,
2013-06-07 22:56:00,52.0,50.9,29.93,WSW,252,2.0,8.0,96,0.15,,---,0.56,VWS V14.01,2013-06-08 02:56:00,
2013-06-07 22:58:00,52.0,50.9,29.93,East,80,2.0,8.0,96,0.15,,---,0.56,VWS V14.01,2013-06-08 02:58:00,
2013-06-07 23:01:00,52.1,51.0,29.93,NE,44,1.0,3.0,96,0.07,,---,0.56,VWS V14.01,2013-06-08 03:01:00,
2013-06-07 23:02:00,52.1,51.0,29.93,ENE,71,2.0,4.0,96,0.07,,---,0.56,VWS V14.01,2013-06-08 03:02:00,
2013-06-07 23:03:00,52.0,50.9,29.92,NNE,31,2.0,5.0,96,0.01,,---,0.57,VWS V14.01,2013-06-08 03:03:00,
2013-06-07 23:04:00,52.0,50.9,29.93,NNE,18,1.0,4.0,96,0.07,,---,0.56,VWS V14.01,2013-06-08 03:04:00,
2013-06-07 23:05:00,52.1,51.0,29.92,NW,323,1.0,5.0,96,0.01,,---,0.57,VWS V14.01,2013-06-08 03:05:00,
2013-06-07 23:06:00,52.0,50.9,29.92,NNW,345,1.0,5.0,96,0.01,,---,0.57,VWS V14.01,2013-06-08 03:06:00,
2013-06-07 23:07:00,52.0,50.9,29.93,NW,323,1.0,5.0,96,0.08,,---,0.57,VWS V14.01,2013-06-08 03:07:00,
2013-06-07 23:08:00,52.0,50.9,29.93,ENE,68,1.0,5.0,96,0.08,,---,0.57,VWS V14.01,2013-06-08 03:08:00,
2013-06-07 23:09:00,52.0,50.9,29.92,NE,56,2.0,5.0,96,0.01,,---,0.57,VWS V14.01,2013-06-08 03:09:00,
2013-06-07 23:10:00,51.9,50.8,29.94,NE,46,5.0,6.0,96,0.08,,---,0.57,VWS V14.01,2013-06-08 03:10:00,
2013-06-07 23:11:00,52.0,50.9,29.92,NNE,20,0.0,5.0,96,0.01,,---,0.57,VWS V14.01,2013-06-08 03:11:00,
2013-06-07 23:12:00,52.0,50.9,29.92,North,350,2.0,6.0,96,0.01,,---,0.57,VWS V14.01,2013-06-08 03:12:00,
2013-06-07 23:13:00,51.9,50.8,29.94,NE,46,2.0,6.0,96,0.08,,---,0.57,VWS V14.01,2013-06-08 03:13:00,
2013-06-07 23:14:00,51.9,50.8,29.94,ENE,67,3.0,6.0,96,0.08,,---,0.57,VWS V14.01,2013-06-08 03:14:00,
2013-06-07 23:15:00,51.9,50.8,29.94,NNE,32,3.0,6.0,96,0.08,,---,0.57,VWS V14.01,2013-06-08 03:15:00,
2013-06-07 23:16:00,52.0,50.9,29.92,NW,323,1.0,6.0,96,0.01,,---,0.57,VWS V14.01,2013-06-08 03:16:00,
2013-06-07 23:17:00,52.0,50.9,29.92,NE,51,1.0,6.0,96,0.01,,---,0.57,VWS V14.01,2013-06-08 03:17:00,
2013-06-07 23:18:00,52.0,50.9,29.92,NE,52,2.0,6.0,96,0.01,,---,0.57,VWS V14.01,2013-06-08 03:18:00,
2013-06-07 23:19:00,51.9,50.8,29.94,NNE,29,2.0,6.0,96,0.08,,---,0.57,VWS V14.01,2013-06-08 03:19:00,
2013-06-07 23:20:00,51.9,50.8,29.94,East,84,1.0,6.0,96,0.08,,---,0.57,VWS V14.01,2013-06-08 03:20:00,
2013-06-07 23:21:00,51.9,50.8,29.94,NW,308,2.0,6.0,96,0.08,,---,0.57,VWS V14.01,2013-06-08 03:21:00,
2013-06-07 23:23:00,52.0,50.9,29.91,North,355,0.0,6.0,96,0.01,,---,0.57,VWS V14.01,2013-06-08 03:23:00,
2013-06-07 23:25:00,51.9,50.8,29.94,NNE,33,3.0,6.0,96,0.08,,---,0.57,VWS V14.01,2013-06-08 03:25:00,
2013-06-07 23:26:00,51.9,50.8,29.94,NE,34,0.0,6.0,96,0.08,,---,0.57,VWS V14.01,2013-06-08 03:26:00,
2013-06-07 23:27:00,51.9,50.8,29.94,NW,316,1.0,6.0,96,0.08,,---,0.57,VWS V14.01,2013-06-08 03:27:00,
2013-06-07 23:30:00,52.0,50.9,29.93,NE,49,1.0,2.0,96,0.02,,---,0.57,VWS V14.01,2013-06-08 03:30:00,
2013-06-07 23:31:00,52.0,50.9,29.93,North,4,0.0,2.0,96,0.02,,---,0.57,VWS V14.01,2013-06-08 03:31:00,
2013-06-07 23:32:00,52.0,50.9,29.93,North,5,1.0,2.0,96,0.02,,---,0.57,VWS V14.01,2013-06-08 03:32:00,
2013-06-07 23:36:00,52.0,50.9,29.93,East,80,1.0,2.0,96,0.02,,---,0.57,VWS V14.01,2013-06-08 03:36:00,
2013-06-07 23:38:00,52.1,51.0,29.93,NNW,338,0.0,2.0,96,0.02,,---,0.57,VWS V14.01,2013-06-08 03:38:00,
2013-06-07 23:39:00,52.1,51.0,29.93,ENE,58,0.0,2.0,96,0.02,,---,0.57,VWS V14.01,2013-06-08 03:39:00,
2013-06-07 23:41:00,52.1,51.0,29.93,NNE,18,0.0,2.0,96,0.02,,---,0.57,VWS V14.01,2013-06-08 03:41:00,
2013-06-07 23:42:00,52.1,51.0,29.93,NNE,18,0.0,2.0,96,0.02,,---,0.57,VWS V14.01,2013-06-08 03:42:00,
2013-06-07 23:43:00,52.1,51.0,29.93,North,9,4.0,4.0,96,0.02,,---,0.57,VWS V14.01,2013-06-08 03:43:00,
2013-06-07 23:44:00,52.1,51.0,29.92,NE,47,3.0,4.0,96,0.02,,---,0.57,VWS V14.01,2013-06-08 03:44:00,
2013-06-07 23:47:00,52.0,50.9,29.92,NNW,346,0.0,4.0,96,0.02,,---,0.57,VWS V14.01,2013-06-08 03:47:00,
2013-06-07 23:48:00,52.0,50.9,29.92,North,11,1.0,4.0,96,0.02,,---,0.57,VWS V14.01,2013-06-08 03:48:00,
2013-06-07 23:49:00,52.0,50.9,29.92,North,358,0.0,4.0,96,0.02,,---,0.57,VWS V14.01,2013-06-08 03:49:00,
2013-06-07 23:52:00,52.0,50.9,29.93,NE,37,3.0,5.0,96,0.02,,---,0.57,VWS V14.01,2013-06-08 03:52:00,
2013-06-07 23:54:00,52.0,50.9,29.93,North,6,1.0,5.0,96,0.02,,---,0.57,VWS V14.01,2013-06-08 03:54:00,
2013-06-07 23:55:00,52.1,51.0,29.92,NW,321,2.0,5.0,96,0.02,,---,0.57,VWS V14.01,2013-06-08 03:55:00,
2013-06-07 23:57:00,52.1,51.0,29.92,NNE,25,2.0,5.0,96,0.02,,---,0.57,VWS V14.01,2013-06-08 03:57:00,
2013-06-07 23:59:00,52.1,51.0,29.92,ENE,58,1.0,3.0,96,0.01,,---,0.57,VWS V14.01,2013-06-08 03:59:00,